Zatopek Urban Tour

Le Jogging de Verviers (13.00 km)

dimanche 16 juin 2019

Le Classement original se trouve sur : http://www.chronorace.be        
ZATOPEK URBAN TOUR
VPHARMA - JOGGING DE VERVIERS
DISTANCE : 13.06 km
dimanche 16 juin 2019
 
Place Dos NOM Equipe Catégorie Pl/cat temps temps/km Vitesse
1 461 BRANDENBOURG MICHAEL   SH 1 0:41:21 03:10 18.95
2 1 CAELEN FLORENT   SH 2 0:41:53 03:12 18.71
3 1709 DURVIAUX RAPHAËL   SH 3 0:42:05 03:13 18.62
4 3 FITA AYANOM   SH 4 0:42:22 03:15 18.50
5 1721 RENARD ARNAUD   SH 5 0:42:27 03:15 18.46
6 1701 STRAET PAOLO   SH 6 0:43:33 03:20 17.99
7 2 CASTERMANS VINCENT   SH 7 0:43:46 03:21 17.90
8 302 LEFEBVRE LUDWIG ICHAM   SH 8 0:43:53 03:22 17.86
9 7 CASTERMANS MICHAEL   SH 9 0:44:11 03:23 17.73
10 949 PTAK FLORENT   SH 10 0:44:53 03:26 17.46
11 1941 MASUY GEOFFREY   SH 11 0:45:05 03:27 17.38
12 2258 TIMMERMANN ALEXANDRE   SH 12 0:45:12 03:28 17.34
13 1641 SPANU LAURENT   SH 13 0:45:15 03:28 17.32
14 834 VERCAMMEN VINCENT   SH 14 0:45:23 03:29 17.27
15 8 BAUMANS AXEL   SH 15 0:45:55 03:31 17.07
16 1948 DEFRAITEUR ROMAIN   SH 16 0:45:59 03:31 17.04
17 1308 HAVET DAVID   SH 17 0:46:00 03:31 17.03
18 846 WIERTZ XAVIER   SH 18 0:46:05 03:32 17.00
19 872 GERREKENS JORDAN   SH 19 0:46:18 03:33 16.92
20 596 DUBOIS SAMUEL   SH 20 0:46:21 03:33 16.91
21 1019 PIERRON OLIVIER JULIEN   V1 1 0:46:22 03:33 16.90
22 2293 DUMOULIN MAXIME   SH 21 0:46:54 03:35 16.71
23 5 KONINCKX STEPHANE CHR VERVIERS SH 22 0:46:57 03:36 16.69
24 1710 NOEL DOMINIQUE   V2 1 0:47:00 03:36 16.67
25 2083 SERVAIS ALEX   SH 23 0:47:11 03:37 16.61
26 1127 ROORDA CHRISTOPHE   SH 24 0:47:28 03:38 16.51
27 4 GRENIER LAURENT   SH 25 0:47:49 03:40 16.39
28 856 DEHIN RÉGINALD   SH 26 0:47:51 03:40 16.38
29 251 FUDVOYE THIBAUT   SH 27 0:48:07 03:41 16.29
30 415 DETRIXHE MICHAEL   SH 28 0:48:19 03:42 16.22
31 505 BOULANGER BRYAN   SH 29 0:48:35 03:43 16.13
32 2203 ORDONEZ MANU   SH 30 0:48:38 03:43 16.11
33 2040 DE FROIDMONT GUILLAUME   SH 31 0:48:45 03:44 16.07
34 2269 DEVEL PHILIPPE   V1 2 0:48:53 03:45 16.03
35 2323 PIETTE DAMIEN   V1 3 0:48:59 03:45 16.00
36 1657 FORT ALEXANDRE   V1 4 0:49:12 03:46 15.93
37 586 DHEUR MAXIME   SH 32 0:49:14 03:46 15.92
38 633 GILLES AMAURY   SH 33 0:49:14 03:46 15.92
39 1823 LAUWERS BRYAN   SH 34 0:49:22 03:47 15.87
40 281 PAUQUET DAMIEN   V1 5 0:49:34 03:48 15.81
41 1205 LECLERCQ PHILIPPE   V1 6 0:49:35 03:48 15.80
42 241 BROSSARD ERIC EBAC V1 7 0:49:38 03:48 15.79
43 295 GRIFGNEE MAXIME CLAUDE   SH 35 0:49:47 03:49 15.74
44 2166 CAMPIONE MICHAEL   SH 36 0:50:14 03:51 15.60
45 2366 BRASSEUR GRÉGORY ZONE DE SECOURS SH 37 0:50:16 03:51 15.59
46 1694 SELERIN PASCAL   SH 38 0:50:17 03:51 15.58
47 1668 BAUDINET JEAN-PIERRE   V2 2 0:50:17 03:51 15.58
48 284 GYSEN GERALD   V1 8 0:50:20 03:51 15.57
49 814 TELLER RENAUD   SH 39 0:50:23 03:51 15.55
50 766 PIQUERAY ERIC   V1 9 0:50:30 03:52 15.52
51 1050 NIZET KÉVIN   SH 40 0:50:54 03:54 15.39
52 1492 DORMAL DAMIEN   SH 41 0:51:05 03:55 15.34
53 1506 SANZ LEANDRO   SH 42 0:51:06 03:55 15.33
54 2145 RENSONNET DENIS   V1 10 0:51:07 03:55 15.33
55 1257 BLANCHY RÉGIS   SH 43 0:51:13 03:55 15.30
56 2359 MINY OLIVIER SWDE SH 44 0:51:15 03:55 15.29
57 1502 HEINS FRÉDÉRIC D'ARGIFRAL - AP SH 45 0:51:21 03:56 15.26
58 973 OTTAVIANI ERWIN   SH 46 0:51:26 03:56 15.23
59 1531 COUNET CLÉMENT   SH 47 0:51:33 03:57 15.20
60 974 FLORKIN-DANS GILLES   SH 48 0:51:39 03:57 15.17
61 1464 CORMAN ADRIEN   SH 49 0:51:40 03:57 15.17
62 1677 RAHIL AMINE   SH 50 0:51:44 03:58 15.15
63 1628 LEMAIRE LUDOVIC   SH 51 0:51:53 03:58 15.10
64 1513 IDRAF MOURAD   V1 11 0:51:56 03:59 15.09
65 688 LAURENT AGNÈS   SD 1 0:51:57 03:59 15.08
66 1565 DILIBERTO ANTONINO   V2 3 0:51:57 03:59 15.08
67 1614 BOSMANS ERIC   V2 4 0:51:58 03:59 15.08
68 226 GILSON SIMON ZONE DE SECOURS SH 52 0:52:06 03:59 15.04
69 1881 NR 1881   xxx   0:52:13 04:00 15.01
70 2209 GENREITH JÉRÉMY GUY   SH 53 0:52:16 04:00 14.99
71 1030 MINEUR JEAN-MARC   V1 12 0:52:17 04:00 14.99
72 635 GOMEZ XAVIER   V1 13 0:52:18 04:00 14.98
73 401 NICOLAS FRANCIS   V2 5 0:52:20 04:00 14.97
74 287 JANSSEN NICOLAS   SH 54 0:52:21 04:01 14.97
75 2267 LARDINOIS SIMON   SH 55 0:52:25 04:01 14.95
76 1239 PLOM CORENTIN   SH 56 0:52:40 04:02 14.88
77 764 PEUTAT SÉBASTIEN   SH 57 0:52:42 04:02 14.87
78 1841 LEMPEREUR BENJAMIN   SH 58 0:52:44 04:02 14.86
79 532 CHOUIBA MOHAMED   V2 6 0:52:45 04:02 14.85
80 414 DEWEZ PIERRE   SH 59 0:52:46 04:02 14.85
81 420 CRUL TIMOTHY   SH 60 0:52:55 04:03 14.81
82 565 TROUPIN CHARLES   SH 61 0:52:56 04:03 14.80
83 1287 FAYMONVILLE JEAN STEVE   SH 62 0:52:57 04:03 14.80
84 1940 KLEIN SAMUEL PAUL   SH 63 0:53:01 04:04 14.78
85 2132 SANCHEZ POSADA TOMAS   SH 64 0:53:01 04:04 14.78
86 1152 BOLSSENS CHRISTOPHE   V1 14 0:53:02 04:04 14.78
87 1304 RESTIGLIAN PIERRE   SH 65 0:53:05 04:04 14.76
88 668 JUNIUS ARNAUD   SH 66 0:53:05 04:04 14.76
89 192 HUPPERETZ PATRICK MUTUALITÉ CHRÉT V1 15 0:53:08 04:04 14.75
90 552 DAISOMONT GILLES   SH 67 0:53:10 04:04 14.74
91 204 LARSILLE KEVIN ESSITY BELGIUM SH 68 0:53:10 04:04 14.74
92 975 GUERRINI FABRICE   SH 69 0:53:13 04:04 14.72
93 1854 BUCKINX ETIENNE   V2 7 0:53:14 04:05 14.72
94 286 ESSABRI ZLI   V2 8 0:53:16 04:05 14.71
95 1556 FAGOT LAURENT   SH 70 0:53:17 04:05 14.71
96 1718 CORSWAREM PIERRE-HENRI   SH 71 0:53:17 04:05 14.71
97 1704 HENRARD GUILLAUME   SH 72 0:53:18 04:05 14.70
98 1831 VANHEESBEKE NICOLAS   SH 73 0:53:18 04:05 14.70
99 496 BELLEFLAMME PIERRE   SH 74 0:53:21 04:05 14.69
100 1522 LAMBERTY HELORI   SH 75 0:53:21 04:05 14.69
101 1680 VRANCKEN MARC   V3 1 0:53:24 04:05 14.67
102 132 JACOB-PAQUAY ERIC FAGNES V1 16 0:53:24 04:05 14.67
103 79 BINAME JULIEN CHR VERVIERS SH 76 0:53:25 04:05 14.67
104 718 LODOMEZ OLIVIER   SH 77 0:53:26 04:05 14.66
105 130 VANHULST BENOÎT FAGNES SH 78 0:53:29 04:06 14.65
106 386 WARLING ROBIN   SH 79 0:53:34 04:06 14.63
107 2164 CHRISTOPHE VITELLO   SH 80 0:53:40 04:07 14.60
108 1453 BEONI GIULIANO   V1 17 0:53:43 04:07 14.59
109 278 PIETTE REMY   SH 81 0:53:44 04:07 14.58
110 1674 VITA GAETANO   V1 18 0:53:47 04:07 14.57
111 1702 STRAET FRANÇOIS   SH 82 0:53:52 04:07 14.55
112 492 BECKERS BENOIT   V1 19 0:53:54 04:08 14.54
113 315 FABRY RÉMI PATRICE   SH 83 0:53:58 04:08 14.52
114 424 DAMOISEAU THIERRY JULES   V1 20 0:54:00 04:08 14.51
115 188 SERVAIS OLIVIER ARAHF V1 21 0:54:03 04:08 14.50
116 813 TELLER BENJA   SH 84 0:54:04 04:08 14.49
117 587 DHEUR SEBASTIEN   SH 85 0:54:04 04:08 14.49
118 1193 JACQUINET ÉRIC   SH 86 0:54:07 04:09 14.48
119 1732 GROULARD MARTIN   SH 87 0:54:08 04:09 14.48
120 550 TIMMERMAN DAVID   V1 22 0:54:09 04:09 14.47
121 1120 HUTSCHEMACKERS FABIAN   V1 23 0:54:11 04:09 14.46
122 75 DE MARO CYRIL CHR VERVIERS SH 88 0:54:11 04:09 14.46
123 34975 HOGGE GAËTAN   SH 89 0:54:14 04:09 14.45
124 2204 LACROIX ANTOINE   SH 90 0:54:15 04:09 14.44
125 1558 BOUILLON BASTIEN   SH 91 0:54:26 04:10 14.40
126 1656 BASTIN KILLIAN   SH 92 0:54:27 04:10 14.39
127 411 BEN SELLAM MEHDI   SH 93 0:54:27 04:10 14.39
128 612 FETTWEIS VÉRONIQUE   SD 2 0:54:28 04:10 14.39
129 1281 JAMAR YANN   SH 94 0:54:32 04:11 14.37
130 11 MOREAU BERNARD SULZER V2 9 0:54:32 04:11 14.37
131 698 LEGROS GHISLAIN   V1 24 0:54:35 04:11 14.36
132 920 NR 920   xxx   0:54:40 04:11 14.33
133 2304 LÉTÉ PASCAL   V3 2 0:54:40 04:11 14.33
134 2341 BOUDRON JEAN-BAPTISTE   V1 25 0:54:45 04:12 14.31
135 1439 AGNOLI PIERRE   SH 95 0:54:48 04:12 14.30
136 2131 SANCHEZ POSADA LUIS   V2 10 0:54:52 04:12 14.28
137 868 DUVIVIER ARNAUD   JH 1 0:54:52 04:12 14.28
138 935 SIMONIS JONAS   SH 96 0:54:54 04:12 14.27
139 145 ARLOFF PATRICK   V1 26 0:54:55 04:12 14.27
140 1272 MATHIEU VINCENT   SH 97 0:54:57 04:12 14.26
141 14 JAMAR CHRISTOPHE   SH 98 0:54:59 04:13 14.25
142 1306 LEGRAND LIONEL JEAN-PAUL   SH 99 0:55:00 04:13 14.25
143 399 HECK NICOLAS   SH 100 0:55:00 04:13 14.25
144 1369 DEWARD MARVIN   SH 101 0:55:00 04:13 14.25
145 1961 LIEGEOIS GAUTHIER   SH 102 0:55:01 04:13 14.24
146 375 VERNIKOV SONJA   SD 3 0:55:01 04:13 14.24
147 2165 LÉTÉ QUENTIN   SH 103 0:55:02 04:13 14.24
148 1877 JOST DAMIEN   SH 104 0:55:03 04:13 14.23
149 2073 NR 2073   xxx   0:55:04 04:13 14.23
150 511 BROCHARD VINCENT   SH 105 0:55:05 04:13 14.23
151 547 CRETTELS FRANKLIN   SH 106 0:55:06 04:13 14.22
152 1516 SANGIOVANNI GIAN CARLO   V1 27 0:55:06 04:13 14.22
153 15 BASTIN ROBERT SULZER V2 11 0:55:07 04:13 14.22
154 22 URLICH PIERRA   SH 107 0:55:09 04:13 14.21
155 1934 SEREXHE FABRICE   SH 108 0:55:09 04:13 14.21
156 34932 SPINEUX FRANÇOIS   SH 109 0:55:10 04:13 14.20
157 1463 KEVERS KEVIN   SH 110 0:55:11 04:14 14.20
158 1843 PIRET GAUTHIER   SH 111 0:55:16 04:14 14.18
159 2312 GOEDERS CHARLES-ETIENNE PHILIPPE   V1 28 0:55:18 04:14 14.17
160 1735 TYTGADT BRANDON   SH 112 0:55:18 04:14 14.17
161 692 LECLERCQ JORDAN   SH 113 0:55:22 04:14 14.15
162 1146 TOUSSAINT BERTRAND   SH 114 0:55:24 04:15 14.14
163 2271 NASSIRU SANI   SH 115 0:55:25 04:15 14.14
164 1588 LOCHT PHILIPPE   JH 2 0:55:28 04:15 14.13
165 1632 TASSET ROMAIN   JH 3 0:55:35 04:15 14.10
166 1570 GIUDICIANNI MICHELE   SH 116 0:55:36 04:15 14.09
167 1622 CHARLIER DAMIEN   SH 117 0:55:36 04:15 14.09
168 2122 VINCENT TIGNEE   SH 118 0:55:41 04:16 14.07
169 443 LIBIN CHRISTOPHE   SH 119 0:55:41 04:16 14.07
170 203 LAOUREUX LAURENT VINVENTIONS V1 29 0:55:43 04:16 14.06
171 1609 VANDENBORRE JULIEN   SH 120 0:55:44 04:16 14.06
172 398 DEGUELDRE VINCENT BÉNÉDICT   SH 121 0:55:45 04:16 14.06
173 508 BREUER GUILLAUME   SH 122 0:55:47 04:16 14.05
174 1571 MANCA TONIO   V1 30 0:55:47 04:16 14.05
175 1474 DELHEZ FLORENTIN   SH 123 0:55:56 04:17 14.01
176 1514 SPAILIER ULRIC   JH 4 0:55:57 04:17 14.01
177 1939 SIEBENOUR MICHEL   V2 12 0:55:58 04:17 14.00
178 1344 COLIN JÉRÔME   SH 124 0:56:01 04:17 13.99
179 1529 DEBIOLLE FRÉDÉRIC   SH 125 0:56:01 04:17 13.99
180 223 WILLEMS SEBASTIEN PERLAV SH 126 0:56:03 04:18 13.98
181 1488 LEMAIRE ANTOINE   SH 127 0:56:03 04:18 13.98
182 2330 DERU FABIAN   V1 31 0:56:04 04:18 13.98
183 2125 BEUVENS FRÉDÉRIC   V1 32 0:56:05 04:18 13.97
184 12 PESSER PIERRE   SH 128 0:56:08 04:18 13.96
185 2295 VERPOORTEN CLÉMENT   JH 5 0:56:08 04:18 13.96
186 2319 FISCHER RAPHAEL   SH 129 0:56:08 04:18 13.96
187 830 VANDERSANDEN MATHIEU   SH 130 0:56:11 04:18 13.95
188 250 FISCHER LINE   SD 4 0:56:13 04:18 13.94
189 2235 BECKERS BAPTISTE   SH 131 0:56:15 04:18 13.93
190 392 TAMBURRINI ROBIN   SH 132 0:56:15 04:18 13.93
191 1892 BEINE EMILIEN   SH 133 0:56:16 04:19 13.93
192 1324 DONNEAU PIERRE   SH 134 0:56:18 04:19 13.92
193 359 HIGNY BERTRAND   SH 135 0:56:25 04:19 13.89
194 2046 LONNEUX SIMON HUBERT   SH 136 0:56:27 04:19 13.88
195 1705 BAGUETTE DENIS   SH 137 0:56:28 04:19 13.88
196 1228 VIEILVOYE CHARLOTTE   SD 5 0:56:30 04:20 13.87
197 2099 MICHOTTE AURÉLIEN MARIANNE   SH 138 0:56:30 04:20 13.87
198 781 REMACLE ROMAIN   SH 139 0:56:35 04:20 13.85
199 349 DEMOULIN CHRISTOPHE   V1 33 0:56:37 04:20 13.84
200 1345 NAHON CHRISTIAN   V1 34 0:56:39 04:20 13.83
201 699 LEJACQUES THIBAUT   SH 140 0:56:40 04:20 13.83
202 2345 SIMONIS QUENTIN ADRY   SH 141 0:56:40 04:20 13.83
203 67 VAN HEUSDEN YANN   JH 6 0:56:42 04:20 13.82
204 936 MUYLKENS THIBAUT   SH 142 0:56:43 04:21 13.82
205 240 LEMAIRE GUILLAUME EBAC SH 143 0:56:45 04:21 13.81
206 64 KEVERS DORIAN   xxx   0:56:45 04:21 13.81
207 2206 PARMENTIER NICOLAS   SH 144 0:56:45 04:21 13.81
208 1460 D'AVELINO MICHAEL   V1 35 0:56:47 04:21 13.80
209 1776 DAELE JEAN-MARC   V1 36 0:56:47 04:21 13.80
210 142 SCHOONBROODT TONY   SH 145 0:56:47 04:21 13.80
211 200 HENDRICK JULIEN VINVENTIONS SH 146 0:56:48 04:21 13.80
212 66 DOBBELSTEINNE PATRICE   SH 147 0:56:51 04:21 13.78
213 1907 DEPRESSEUX JULIEN ROBERT   SH 148 0:56:54 04:21 13.77
214 365 JACQUEMIN OLIVIER   V1 37 0:56:54 04:21 13.77
215 1765 NR 1765   xxx   0:56:55 04:21 13.77
216 684 LANGE MICHAEL   V1 38 0:56:55 04:21 13.77
217 1806 JACOBS JÉRÔME   SH 149 0:56:56 04:22 13.76
218 1206 NR 1206   xxx   0:56:59 04:22 13.75
219 1505 DEFOSSA ARNOULD   SH 150 0:57:00 04:22 13.75
220 1566 DELLICOUR VINCENT   V2 13 0:57:00 04:22 13.75
221 1285 PLUNUS DORIAN   SH 151 0:57:03 04:22 13.74
222 1775 GARROI CYRILLE   SH 152 0:57:05 04:22 13.73
223 952 DE VOS DAVID   SH 153 0:57:09 04:23 13.71
224 328 SCHIFFLERS NICOLAS   SH 154 0:57:09 04:23 13.71
225 422 TAMBURRINI NICOLAS CÉDRIC   SH 155 0:57:10 04:23 13.71
226 1678 HAEPERS BENOIT   SH 156 0:57:10 04:23 13.71
227 1964 CORNET BENJAMIN   SH 157 0:57:12 04:23 13.70
228 1602 FILOT MAXIME   SH 158 0:57:15 04:23 13.69
229 2342 XHONNEUX RENAUD   V1 39 0:57:16 04:23 13.68
230 2195 PRINCIPATO BENOIT   SH 159 0:57:16 04:23 13.68
231 1359 WILLOT VALERY   V1 40 0:57:18 04:23 13.68
232 2072 DAELEN VINCENT   V1 41 0:57:19 04:23 13.67
233 1618 JAMSIN NILS   SH 160 0:57:19 04:23 13.67
234 1209 LEDOUX SAMUEL   SH 161 0:57:26 04:24 13.64
235 545 COUNE JEROME   SD 6 0:57:29 04:24 13.63
236 544 CORBUSIER NICOLAS   SH 162 0:57:30 04:24 13.63
237 1773 CLONEN CHRISTOPHE   SH 163 0:57:32 04:24 13.62
238 582 DESSOUROUX JEAN   V3 3 0:57:33 04:24 13.62
239 35000 BAGUETTE THIBAUT   SH 164 0:57:33 04:24 13.62
240 452 JOSEPH ARNAUD DORIAN   SH 165 0:57:35 04:25 13.61
241 1356 HUGUES TRINON   SH 166 0:57:40 04:25 13.59
242 357 POUMAY STÉPHANE ANDRÉ   SH 167 0:57:40 04:25 13.59
243 1886 MASSARD PHILPPE   V2 14 0:57:41 04:25 13.58
244 9 FRANCK CHRISTIAN   V3 4 0:57:42 04:25 13.58
245 1573 BOVI JEAN-LUC   V2 15 0:57:43 04:25 13.58
246 1444 FEDSOSEEW JÉRÉMIE   SH 168 0:57:44 04:25 13.57
247 1364 DEPREZ THOMAS   SH 169 0:57:45 04:25 13.57
248 52 BOLAND ANTOINE MEURENS NATURAL V1 42 0:57:46 04:25 13.56
249 1150 LORQUET JEAN-MARC   V2 16 0:57:46 04:25 13.56
250 255 LOUIS VINCENT   SH 170 0:57:46 04:25 13.56
251 1211 DORTU BASTIAN   SH 171 0:57:47 04:25 13.56
252 2290 AGUS PAOLO   V1 43 0:57:48 04:26 13.56
253 2202 DESADELEER JEAN-FRAMCOIS   SH 172 0:57:48 04:26 13.56
254 345 BOSCOLO MANUEL VICTOR   V1 44 0:57:50 04:26 13.55
255 956 LONGTON GILLES   SH 173 0:57:53 04:26 13.54
256 34966 GERARD CHRISTOPHE   SH 174 0:57:54 04:26 13.53
257 2086 MERCY ALAIN   SH 175 0:57:55 04:26 13.53
258 654 HUBERT ERIC   V2 17 0:57:55 04:26 13.53
259 2264 BAUTE BENOÎT   V1 45 0:57:56 04:26 13.53
260 590 DORTU ARNAUD   SH 176 0:57:57 04:26 13.52
261 35008 KLINKENBERG CHRISTIAN   V1 46 0:58:00 04:26 13.51
262 674 KAYNAK MEHMET   V1 47 0:58:00 04:26 13.51
263 752 NOIRHOMME PIERRE   SH 177 0:58:00 04:26 13.51
264 483 BASTIN ROBIN   JH 7 0:58:02 04:27 13.50
265 845 WEUSTEN CEDRIC   SH 178 0:58:04 04:27 13.49
266 268 DELHAUSSE THOMAS   SH 179 0:58:05 04:27 13.49
267 1987 GENREITH GREGORY   SH 180 0:58:05 04:27 13.49
268 2038 BRENNENRAEDTS FREDERIC   SH 181 0:58:06 04:27 13.49
269 1483 LEBER MATHIEU   SH 182 0:58:06 04:27 13.49
270 1968 DURIEUX RODOLPHE   SH 183 0:58:08 04:27 13.48
271 1644 HANSEZ ANNE   SD 7 0:58:08 04:27 13.48
272 1740 CREMER PATRICK   V3 5 0:58:09 04:27 13.48
273 2275 ROMAIN JORIS   SH 184 0:58:10 04:27 13.47
274 296 CLAUDOT FRANÇOIS   SH 185 0:58:12 04:27 13.46
275 447 DE VOS SERGE   V2 18 0:58:14 04:28 13.46
276 1041 DEROCHE THOMAS JEAN-MICHEL   SH 186 0:58:14 04:28 13.46
277 1988 COLLING JEAN-YVES   SH 187 0:58:15 04:28 13.45
278 776 RADERMECKER ARTHUR   JH 8 0:58:20 04:28 13.43
279 168 VERDIN FRÉDÉRIC CELABOR SH 188 0:58:21 04:28 13.43
280 1125 COLLIN CÉDRIC   SH 189 0:58:21 04:28 13.43
281 1629 KERENS PHILIPPE   V2 19 0:58:22 04:28 13.43
282 1055 HENRARD ADRIEN   SH 190 0:58:25 04:28 13.41
283 439 HUET WILLIAM   V2 20 0:58:27 04:29 13.41
284 592 DOSSERAY FRÉDÉRIC   V1 48 0:58:28 04:29 13.40
285 164 BOULTON CÉDRIC   SH 191 0:58:28 04:29 13.40
286 624 GARCIA FABRICE   V1 49 0:58:29 04:29 13.40
287 617 FLAMAND MICHAEL   SH 192 0:58:33 04:29 13.38
288 140 CERFONTAINE QUENTIN FAGNES SH 193 0:58:35 04:29 13.38
289 1519 VANBRABANT RAPHAEL   V1 50 0:58:35 04:29 13.38
290 458 DELREZ DIDIER   SH 194 0:58:37 04:29 13.37
291 332 DORTU DAVID CHARLES   SH 195 0:58:37 04:29 13.37
292 1689 COOSEMANS MARIE   SD 8 0:58:38 04:29 13.36
293 1429 BINARD MARC   V3 6 0:58:40 04:30 13.36
294 1293 LECOQ FRANCOIS   JH 9 0:58:42 04:30 13.35
295 304 GRIFGNEE THIERRY GILBERT   V2 21 0:58:43 04:30 13.35
296 1669 DESSY BENOIT   SH 196 0:58:43 04:30 13.35
297 2091 PIRLET YVES   V3 7 0:58:46 04:30 13.33
298 1865 DELSEMME FABRICE   V1 51 0:58:49 04:30 13.32
299 522 CANALES ALBERTO   V3 8 0:58:52 04:30 13.31
300 301 RONKART PHILIPPE DENIS   V1 52 0:58:55 04:31 13.30
301 533 CLIEGNET CHRISTIAN   SH 197 0:58:55 04:31 13.30
302 1018 PIERRON CATHERINE NATHALIE   SD 9 0:58:56 04:31 13.30
303 300 ROGGEMANS MAXIME   SH 198 0:58:56 04:31 13.30
304 1351 DEROUWAUX MICHAEL   SH 199 0:58:57 04:31 13.29
305 1862 SPAILIER FABIEN   V1 53 0:58:59 04:31 13.28
306 1553 LENSSEN PIERRE   V1 54 0:58:59 04:31 13.28
307 2371 LION PASCAL CAP NRB V1 55 0:59:00 04:31 13.28
308 1936 VANHAELEN PIERRE   SH 200 0:59:01 04:31 13.28
309 1639 LENZ MARVIN GOHY S.A. SH 201 0:59:02 04:31 13.27
310 1633 TASSET JOFFREY   SH 202 0:59:04 04:31 13.27
311 2244 ROUSSEAU ANTOINE RENÉ   SH 203 0:59:08 04:32 13.25
312 501 BINET LOUIS   SH 204 0:59:08 04:32 13.25
313 1545 REKAYA SAMIR   V1 56 0:59:09 04:32 13.25
314 254 BASTIN MANU   V1 57 0:59:10 04:32 13.24
315 1655 SAMYN STEPHAN   V1 58 0:59:11 04:32 13.24
316 1653 IPACH PIERRE   V2 22 0:59:11 04:32 13.24
317 1654 FAYS GUY   V2 23 0:59:11 04:32 13.24
318 928 COLLIGNON FRÉDÉRIC JEAN   V1 59 0:59:11 04:32 13.24
319 1921 SCHUNCK MARC   V1 60 0:59:13 04:32 13.23
320 994 HANNOTTE CHRISTOPHE   V1 61 0:59:13 04:32 13.23
321 1400 HÉRION PHILIPPE   V2 24 0:59:13 04:32 13.23
322 682 LAHAYE JONATHAN   SH 205 0:59:13 04:32 13.23
323 1438 GAILLARD JÉRÔME   SH 206 0:59:14 04:32 13.23
324 554 DAMBLON PATRICK   V2 25 0:59:14 04:32 13.23
325 1659 WITTERS RIK   V2 26 0:59:15 04:32 13.23
326 1147 VRINS AROKY   V1 62 0:59:16 04:32 13.22
327 358 HIGNY THOMAS   SH 207 0:59:16 04:32 13.22
328 1323 COUQUELET LAURENC   A2 1 0:59:21 04:33 13.20
329 139 COMPÈRE MICHEL FAGNES SH 208 0:59:21 04:33 13.20
330 955 DUVEAU GAËTAN   SH 209 0:59:22 04:33 13.20
331 2082 ZIMMER DYLAN   V1 63 0:59:22 04:33 13.20
332 23 CLABAU JONATHAN   SH 210 0:59:24 04:33 13.19
333 2231 LUCIC STEPHAE   SH 211 0:59:24 04:33 13.19
334 604 EL-BALDI SAÏD   V1 64 0:59:25 04:33 13.19
335 1976 ROYEN AURELIEN   SH 212 0:59:28 04:33 13.18
336 1040 PAGGEN RAPHAËL FRANÇOIS   V1 65 0:59:28 04:33 13.18
337 948 PTAK BENOIT   V1 66 0:59:29 04:33 13.17
338 2233 ROGGEMANS JONATHAN   SH 213 0:59:31 04:33 13.17
339 1321 MARQUET YANNICK JEAN   SH 214 0:59:32 04:34 13.16
340 1835 CLOSTER ADRIEN   SH 215 0:59:32 04:34 13.16
341 959 CHRISTODOULEAS PATRICK   V2 27 0:59:33 04:34 13.16
342 629 GENOVA MARCO   V1 67 0:59:34 04:34 13.15
343 1922 RIGO MICHEL GEORGES   V1 68 0:59:37 04:34 13.14
344 177 FOGUENNE ALAIN JALHAY ADMINIST V1 69 0:59:38 04:34 13.14
345 1839 SOMJA VICTOR   V3 9 0:59:42 04:34 13.13
346 962 GOUVERNEUR PATRICE   V2 28 0:59:44 04:34 13.12
347 468 AJA VALDES MANU   V2 29 0:59:45 04:35 13.11
348 2013 HABRAN SIMON   SH 216 0:59:46 04:35 13.11
349 1763 HEINRICHS GREGORY   SH 217 0:59:46 04:35 13.11
350 506 BOVENS LAURENT   SH 218 0:59:46 04:35 13.11
351 796 SCHNAKERS ARNAUD   SH 219 0:59:47 04:35 13.11
352 419 ZIMMERMANN NICOLAS   SH 220 0:59:48 04:35 13.10
353 1552 CORNET JULIEN   SH 221 0:59:50 04:35 13.10
354 1433 PIRARD LAURENT   SH 222 0:59:50 04:35 13.10
355 632 GILET ARNAUD   V1 70 0:59:52 04:35 13.09
356 1523 BECKERS ARNAUD   SH 223 0:59:53 04:35 13.09
357 178 HOUSSA DIMITRI JALHAY ADMINIST SH 224 0:59:53 04:35 13.09
358 1912 RENSONNET PASCAL   V1 71 0:59:54 04:35 13.08
359 1986 LIEUTENANT JEROME   SH 225 0:59:55 04:35 13.08
360 1227 THYRION LUC   V2 30 0:59:57 04:35 13.07
361 366 MALMENDIER TONY   SH 226 0:59:58 04:36 13.07
362 661 JENNES DAMIEN   SH 227 0:59:59 04:36 13.06
363 2194 BASTIN JONATHAN XAVIER   SH 228 0:59:59 04:36 13.06
364 222 MARLET NICOLAS PERLAV SH 229 1:00:00 04:36 13.06
365 123 CHOPART JULIEN DECATHLON VERVI SH 230 1:00:01 04:36 13.06
366 756 NOLS FRANCOISE   SD 10 1:00:02 04:36 13.05
367 2187 SONKES OLIVIER   SH 231 1:00:08 04:36 13.03
368 1970 DECHAMPS XAVIER   V1 72 1:00:08 04:36 13.03
369 430 GILLET GRÉGORY MYRIAM   SH 232 1:00:09 04:36 13.03
370 1455 SCHARIS ALEXANDRE   SH 233 1:00:09 04:36 13.03
371 2223 LEVAUX NOEL   V2 31 1:00:13 04:37 13.01
372 475 ALBERT JEREMY   SH 234 1:00:14 04:37 13.01
373 1432 PIRARD BENJAMIN   SH 235 1:00:15 04:37 13.01
374 1894 KAISER BRUNO   V1 73 1:00:17 04:37 13.00
375 1626 MODAERT DIMITRY   V1 74 1:00:18 04:37 12.99
376 614 FEY CELINE   SD 11 1:00:19 04:37 12.99
377 2289 ALBERT STEVE   V1 75 1:00:20 04:37 12.99
378 227 DUJARDIN PHILIPPE ZONE DE SECOURS SH 236 1:00:21 04:37 12.98
379 925 WILKIN MAYRON   SH 237 1:00:22 04:37 12.98
380 428 PETITJEAN FERNAND   SH 238 1:00:23 04:37 12.98
381 2144 EL HAJJAJY HALIL   V1 76 1:00:23 04:37 12.98
382 2329 DERU TOM   JH 10 1:00:23 04:37 12.98
383 769 PIRENNE ANTOINE   JH 11 1:00:25 04:38 12.97
384 252 FASSIN JEAN-FRANCOIS EBAC SH 239 1:00:26 04:38 12.97
385 1200 DI MARIA BRIEUC   SH 240 1:00:28 04:38 12.96
386 790 ROYEN CÉDRIC   SH 241 1:00:28 04:38 12.96
387 1143 MOESEN JEAN-FRANÇOIS HUBERT   V1 77 1:00:29 04:38 12.96
388 6 PRICKARTZ GERALD   V1 78 1:00:30 04:38 12.95
389 1810 LAURENT DAVID   SH 242 1:00:30 04:38 12.95
390 435 DEVILLE BRANDON   SH 243 1:00:31 04:38 12.95
391 757 NYSSEN PIERRE   V2 32 1:00:32 04:38 12.94
392 1181 VANOVERBERGHE LOIC   SH 244 1:00:36 04:38 12.93
393 696 LEGRAND CHRISTOPHE   SH 245 1:00:40 04:39 12.92
394 553 DALLA CORTE LUDOVIC   SH 246 1:00:41 04:39 12.91
395 1818 ROOMANS PASCAL   V1 79 1:00:41 04:39 12.91
396 363 DESSAUCY QUENTIN   SH 247 1:00:43 04:39 12.91
397 1440 EL-BALDI DRISS   SH 248 1:00:43 04:39 12.91
398 146 VAN GENECHTEN MEDERIC   SH 249 1:00:44 04:39 12.90
399 138 DELHEZ JONATHAN FAGNES SH 250 1:00:44 04:39 12.90
400 1963 CORNET QUENTIN   SH 251 1:00:44 04:39 12.90
401 50 MEURENS BRUNO MEURENS NATURAL SH 252 1:00:44 04:39 12.90
402 630 GEORGES SÉBASTIEN   SH 253 1:00:46 04:39 12.89
403 1962 LEGRAND JEAN-MARC ANDRÉ   V2 33 1:00:46 04:39 12.89
404 450 DELARGE PATRICK   SH 254 1:00:48 04:39 12.89
405 370 LEBEAU PIERRE   SH 255 1:00:49 04:39 12.88
406 971 GUILLIAMS MAUD   SD 12 1:00:50 04:39 12.88
407 911 CROS JEREMY   SH 256 1:00:52 04:40 12.87
408 941 HENRION GÉRÔME   SH 257 1:00:53 04:40 12.87
409 1902 BUSTIN BERNARD   V1 80 1:00:55 04:40 12.86
410 2355 THIRION STEPHANE SWDE V2 34 1:00:56 04:40 12.86
411 700 LEJEUNE PHILIPPE   V2 35 1:00:58 04:40 12.85
412 1395 REUL MAX   SH 258 1:00:58 04:40 12.85
413 645 HEEREN KEVIN   SH 259 1:00:59 04:40 12.85
414 405 GURALNIK STEPHAN RAYMOND   SH 260 1:00:59 04:40 12.85
415 599 DUMEZ JÉRÔME   SH 261 1:01:00 04:40 12.85
416 1867 DELSEMME HUGO   JH 12 1:01:00 04:40 12.85
417 748 NADENOEN OLIVIER   V1 81 1:01:00 04:40 12.85
418 34958 W. VINCENT   SH 262 1:01:02 04:40 12.84
419 2188 BOONEN NATHAN   SH 263 1:01:05 04:41 12.83
420 842 WALRAFF WALLY   V2 36 1:01:07 04:41 12.82
421 711 LENNARTZ CÉDRIC   SH 264 1:01:09 04:41 12.81
422 1772 VANDEN BULCK CHRISTOPHE   SH 265 1:01:10 04:41 12.81
423 160 DELINCE GEOFFREY   SH 266 1:01:11 04:41 12.81
424 844 WATAR FRANCIS   V1 82 1:01:13 04:41 12.80
425 804 SIMAR THOMAS   SH 267 1:01:13 04:41 12.80
426 2096 LEROY HUGO   JH 13 1:01:15 04:41 12.79
427 1672 CALIFICE BERTRAND   SH 268 1:01:15 04:41 12.79
428 1638 MARION ROMAIN   JH 14 1:01:17 04:42 12.79
429 1586 LOFORTE ROSARIO   V1 83 1:01:17 04:42 12.79
430 651 HOOFS PHILIPPE   SH 269 1:01:17 04:42 12.79
431 1712 WASSON CORENTIN   SH 270 1:01:19 04:42 12.78
432 499 BETHUME BERNARD   V2 37 1:01:20 04:42 12.78
433 572 DEMAZY STEVE   V1 84 1:01:20 04:42 12.78
434 742 MONNARD VINCENT   SH 271 1:01:23 04:42 12.77
435 54 MALMENDIER YVES MEURENS NATURAL V2 38 1:01:23 04:42 12.77
436 930 PEZZETTI SERGIO GINO   SH 272 1:01:24 04:42 12.76
437 551 DAEL FABRICE   V1 85 1:01:29 04:42 12.74
438 1394 REUL CLÉMENT   JH 15 1:01:29 04:42 12.74
439 2044 DEMONTY NICOLAS DENIS   SH 273 1:01:31 04:43 12.74
440 799 SCHREURS FABRICE   V1 86 1:01:31 04:43 12.74
441 2061 HAPPART GREGORY   V1 87 1:01:38 04:43 12.71
442 1784 DEMORI JULIEN   SH 274 1:01:38 04:43 12.71
443 34971 SCHNACKERS GUILLAUME   SH 275 1:01:38 04:43 12.71
444 1914 KELLENS MICHEL   V2 39 1:01:39 04:43 12.71
445 2344 LANSMANS LUDOVIC   SH 276 1:01:40 04:43 12.71
446 1814 BAIVIER ALEXANDRE GOHY S.A. SH 277 1:01:41 04:43 12.70
447 1420 DIMIDSCHSTEIN ARNAUD   SH 278 1:01:41 04:43 12.70
448 2210 VERLEGH FRANCOIS   SH 279 1:01:41 04:43 12.70
449 2296 DEJONG BENJAMIN   SH 280 1:01:43 04:44 12.70
450 1662 HEUSSCHEN DOMINIQUE   xxx   1:01:44 04:44 12.69
451 378 BRICTEUX JUSTIN   JH 16 1:01:44 04:44 12.69
452 1791 DETHIER ALAIN   V2 40 1:01:46 04:44 12.69
453 1377 LECOQ JEAN PIERRE   V1 88 1:01:47 04:44 12.68
454 1713 WASSON KÉVIN   SH 281 1:01:48 04:44 12.68
455 2310 KALAC ALEN   SH 282 1:01:48 04:44 12.68
456 90 HANSEN JONATHAN   SH 283 1:01:51 04:44 12.67
457 644 HAVART XAVIER   V1 89 1:01:52 04:44 12.67
458 2309 MATIS CORTEIL   SH 284 1:01:53 04:44 12.66
459 43 LEJEUNE GRÉGORY V.PHARMA SH 285 1:01:54 04:44 12.66
460 2117 HERMANS BERTRAND   SH 286 1:01:54 04:44 12.66
461 530 CHEFNEUX SEBASTIEN   V1 90 1:01:58 04:45 12.65
462 1780 KERENS ANNE   A2 2 1:01:59 04:45 12.64
463 161 DEKROCK PHILIPPE   V1 91 1:02:00 04:45 12.64
464 209 CASTELA GONZALO ESSITY BELGIUM V3 10 1:02:00 04:45 12.64
465 1132 RANDAXHE CHRISTIAN   V1 92 1:02:04 04:45 12.62
466 2272 NR 2272   xxx   1:02:06 04:45 12.62
467 2108 BACHY XAVIER   V1 93 1:02:06 04:45 12.62
468 1491 VOLVERT GILLES   SH 287 1:02:11 04:46 12.60
469 135 DOURCY QUENTIN FAGNES SH 288 1:02:11 04:46 12.60
470 2372 MILAN DANIELE CAP NRB V2 41 1:02:12 04:46 12.60
471 261 DELANDSHEERE LIONEL   SH 289 1:02:12 04:46 12.60
472 2149 GODIN MICHAEL   SH 290 1:02:14 04:46 12.59
473 2171 GHELANDRE MICKAEL   SH 291 1:02:18 04:46 12.58
474 1212 NR 1212   xxx   1:02:19 04:46 12.57
475 393 SEVAR JEAN FRANÇOIS   V1 94 1:02:20 04:46 12.57
476 741 MOMMER PIERRE   SH 292 1:02:20 04:46 12.57
477 914 SPADARO RAPHAEL   SH 293 1:02:21 04:46 12.57
478 976 POLLET VINCENT   V1 95 1:02:21 04:46 12.57
479 2043 VAN OVERSTRAETEN MATHIEU JEAN   SH 294 1:02:21 04:46 12.57
480 998 PETRUZZELLI PIERRE   SH 295 1:02:24 04:47 12.56
481 768 PIRARD PHILIPPE   SH 296 1:02:25 04:47 12.55
482 104 FRANSOLET DANIEL CORMAN V2 42 1:02:25 04:47 12.55
483 1736 GILBERT PHILIPPE   V2 43 1:02:26 04:47 12.55
484 1688 TANS LAURENT   SH 297 1:02:27 04:47 12.55
485 445 RASSART MARC   V2 44 1:02:29 04:47 12.54
486 1240 PLAIR LYDIE   SD 13 1:02:32 04:47 12.53
487 1664 BEKKAR WAHIB   SH 298 1:02:32 04:47 12.53
488 2214 TATON YURI   SH 299 1:02:32 04:47 12.53
489 2324 NIRO ANTHONY   SH 300 1:02:33 04:47 12.53
490 2002 MIKE HUYGHE   V1 96 1:02:33 04:47 12.53
491 803 SICIM MUSTAFA   V1 97 1:02:34 04:47 12.52
492 2090 CLOSSET DIDIER   V1 98 1:02:36 04:48 12.52
493 1954 BALTUS OLIVIER   SH 301 1:02:37 04:48 12.51
494 997 CUPERS PHILIPPE   V2 45 1:02:38 04:48 12.51
495 788 ROUFOSSE FRÉDÉRIC   V1 99 1:02:41 04:48 12.50
496 2139 LECLÈRE ENZO   JH 17 1:02:42 04:48 12.50
497 231 JENNES BENJAMIN SULZER SH 302 1:02:43 04:48 12.49
498 945 FABRY NICOLAS   SH 303 1:02:45 04:48 12.49
499 2041 DE KRAHE JEREMY   SH 304 1:02:45 04:48 12.49
500 352 DECHAMPS MAXIME JEAN   SH 305 1:02:48 04:49 12.48
501 37 GREGOIRE EMILIEN CHR VERVIERS SH 306 1:02:49 04:49 12.47
502 193 MASSIN JEAN-PHILIPPE MUTUALITÉ CHRÉT SH 307 1:02:49 04:49 12.47
503 2192 PHILIPPART FABIAN   V1 100 1:02:51 04:49 12.47
504 214 WAUTLET STÉPHANE ESSITY BELGIUM SH 308 1:02:51 04:49 12.47
505 786 ROCCHI LÉNA   JF 1 1:02:52 04:49 12.46
506 394 FROIDBISE JEAN LUC   V2 46 1:02:55 04:49 12.45
507 1362 MILAZZO SAMUEL   SH 309 1:02:55 04:49 12.45
508 321 ROOMANS JULIAN   SH 310 1:02:57 04:49 12.45
509 1198 DORTU AXEL   SH 311 1:02:59 04:49 12.44
510 5050 HEUSSE SACHA   JH 18 1:03:02 04:50 12.43
511 194 STOFFELS ALAIN MUTUALITÉ CHRÉT V2 47 1:03:03 04:50 12.43
512 2069 TROMME BENOIT   V1 101 1:03:03 04:50 12.43
513 34968 MASSCHELEIN FABRICE   V1 102 1:03:04 04:50 12.42
514 1591 MOULET BORIS   SH 312 1:03:05 04:50 12.42
515 1471 BODSON FRANÇOIS   SH 313 1:03:05 04:50 12.42
516 746 NR 746   xxx   1:03:05 04:50 12.42
517 1911 SCHYNS RENE   V3 11 1:03:06 04:50 12.42
518 2196 COLLIN AUDREY   SD 14 1:03:06 04:50 12.42
519 1448 HERMENS PHILIPPE   SH 314 1:03:07 04:50 12.41
520 1371 KAIRIS BERTRAND   SH 315 1:03:08 04:50 12.41
521 247 STASSEN CÉDRIC EBAC V1 103 1:03:09 04:50 12.41
522 1003 FOGUENNE LUC   V2 48 1:03:10 04:50 12.41
523 1540 RIO BIAGINO   V1 104 1:03:12 04:50 12.40
524 1180 JANSSEN FLORIAN   xxx   1:03:16 04:51 12.39
525 1398 OURY PATRICE   V2 49 1:03:17 04:51 12.38
526 832 VANWERST LUCAS   SH 316 1:03:17 04:51 12.38
527 2193 DIET FABRICE ALBERT   V1 105 1:03:17 04:51 12.38
528 762 PESSER CHRISTIAN   V1 106 1:03:21 04:51 12.37
529 124 ZANZEN DAMIEN DECATHLON VERVI SH 317 1:03:22 04:51 12.37
530 1583 SCHMETZ ROLAND GOHY S.A. V2 50 1:03:22 04:51 12.37
531 2292 DUMOULIN PHILIPPE JOSEPH   V2 51 1:03:23 04:51 12.36
532 2150 HANNOTTE SYLVAIN   SH 318 1:03:25 04:51 12.36
533 1903 PIROT PASCAL   SH 319 1:03:25 04:51 12.36
534 1223 LACROIX ANDRÉ   V1 107 1:03:26 04:51 12.35
535 2123 BAIWIR ANTHONY   SH 320 1:03:27 04:52 12.35
536 886 HARDY CHRISTOPHE   SH 321 1:03:29 04:52 12.34
537 677 KEVELAER BÉATRICE   A1 1 1:03:30 04:52 12.34
538 1781 DENIS PIERRE D'ARGIFRAL - AP SH 322 1:03:31 04:52 12.34
539 128 DE CLERCK FREDERIC DECATHLON VERVI V1 108 1:03:32 04:52 12.33
540 407 PISSART ANDY DAVID   SH 323 1:03:33 04:52 12.33
541 853 XHONNEUX OLIVER   V1 109 1:03:33 04:52 12.33
542 34981 BRICTEUX MARIUS   SH 324 1:03:34 04:52 12.33
543 1336 BRIXHE GERY   V2 52 1:03:36 04:52 12.32
544 988 SERVAIS NATHALIE   A2 3 1:03:36 04:52 12.32
545 444 DEDRY CHRISTOPHE FREDDY   V1 110 1:03:38 04:52 12.31
546 346 URLINGS LAURENT   SH 325 1:03:40 04:53 12.31
547 512 BROSET STÉPHANE   SH 326 1:03:40 04:53 12.31
548 1946 SAVELBERG PASCAL   V1 111 1:03:40 04:53 12.31
549 1139 HEINEN THOMAS   SH 327 1:03:42 04:53 12.30
550 1564 DILIBERTO FILIPPO   V1 112 1:03:43 04:53 12.30
551 642 HARDY MARC   V1 113 1:03:43 04:53 12.30
552 159 DEPRESSEUX NICOLAS   SH 328 1:03:43 04:53 12.30
553 322 FANNI ADRIEN NADINE   SH 329 1:03:43 04:53 12.30
554 2161 NAWAY LUDOVIC   SH 330 1:03:44 04:53 12.29
555 2303 JACOBY ANAÏK   SH 331 1:03:44 04:53 12.29
556 883 CRICKBOOM MAXIME   SH 332 1:03:44 04:53 12.29
557 897 GROSJEAN LUCA DOMINIQUE   SH 333 1:03:44 04:53 12.29
558 2048 JOB DAVID   SH 334 1:03:44 04:53 12.29
559 932 LEROI BENJAMIN   SH 335 1:03:45 04:53 12.29
560 2059 CHAMPAGNE BERTRAND   SH 336 1:03:47 04:53 12.29
561 1652 LUCASSEN PHILIPPE   V2 53 1:03:48 04:53 12.28
562 1893 BROCHARD LUDO   SH 337 1:03:49 04:53 12.28
563 119 HACHA JONATHAN DECATHLON VERVI SH 338 1:03:50 04:53 12.28
564 1815 DELSAUTE BRICE GOHY S.A. SH 339 1:03:50 04:53 12.28
565 34952 DUMONT VALENTIN   SH 340 1:03:51 04:53 12.27
566 1665 STEMBERT LAETITIA   SD 15 1:03:53 04:53 12.27
567 2137 HERZET JONATHAN   SH 341 1:03:53 04:53 12.27
568 1405 MARCOTTE JEAN LUC   V3 12 1:03:54 04:54 12.26
569 2162 THIBAUT GILLES   SH 342 1:03:58 04:54 12.25
570 833 VARGA MICHAËL   SH 343 1:03:58 04:54 12.25
571 1778 PIRLOT BERNARD D'ARGIFRAL - AP SH 344 1:03:59 04:54 12.25
572 179 VITRIER ROLAND JALHAY ADMINIST V1 114 1:03:59 04:54 12.25
573 912 FRANSSEN JEAN-FRANÇOIS JACQUES   V1 115 1:04:01 04:54 12.24
574 934 PIETTE OLIVIER CHRISTOPHE   V1 116 1:04:01 04:54 12.24
575 753 NOLS CHRISTIAN   V1 117 1:04:01 04:54 12.24
576 416 NEUPREZ GERALD   SH 345 1:04:01 04:54 12.24
577 1548 PIQUERAY ALEXANDRE   SH 346 1:04:02 04:54 12.24
578 1044 LEFÈBVRE MICHAËL   SH 347 1:04:02 04:54 12.24
579 105 HARDY BRUNO CORMAN V1 118 1:04:03 04:54 12.23
580 610 FASSIN ELODIE   SD 16 1:04:06 04:54 12.22
581 1687 THIRY SAMUEL   V1 119 1:04:06 04:54 12.22
582 1928 DARDENNE NICOLAS THIERRY   SH 348 1:04:07 04:55 12.22
583 2167 LODOMEZ GEOFFREY   SH 349 1:04:07 04:55 12.22
584 2050 DESENFANTS CHRISTOPHE   V1 120 1:04:11 04:55 12.21
585 1167 NULLENS KÉVIN   SH 350 1:04:12 04:55 12.21
586 1012 BODESON AUGUSTIN   SH 351 1:04:13 04:55 12.20
587 71 LUXEN BENOÎT CHR VERVIERS SH 352 1:04:13 04:55 12.20
588 1584 MALMENDIER GUILLAUME   SH 353 1:04:14 04:55 12.20
589 1437 VANDEROOST PASCAL   SH 354 1:04:16 04:55 12.19
590 2232 BURNAY LOIC   SH 355 1:04:17 04:55 12.19
591 344 CONSTANT JEAN BENOIT   SH 356 1:04:17 04:55 12.19
592 1283 NAWYN BENJAMIN   V1 121 1:04:18 04:55 12.19
593 35006 VANNIEUWENHUYSEN MICHEL   V2 54 1:04:19 04:55 12.18
594 1501 CARELLA DAVID   SH 357 1:04:19 04:55 12.18
595 639 HANSEZ SEBASTIEN   SH 358 1:04:22 04:56 12.17
596 999 ROSA HUGUES   V1 122 1:04:23 04:56 12.17
597 1000 THONNARD SÉVERINE MARIE   SD 17 1:04:24 04:56 12.17
598 490 BECKERS OLIVIER   V1 123 1:04:24 04:56 12.17
599 337 MOHRING HUGO   SH 359 1:04:24 04:56 12.17
600 2256 DETRY OLIVIER   V1 124 1:04:27 04:56 12.16
601 2198 CUCCURUJEAN JEAN   V2 55 1:04:27 04:56 12.16
602 666 JOSTEN STÉPHANE   SH 360 1:04:28 04:56 12.15
603 1547 FETWEIS PIERRE   SH 361 1:04:30 04:56 12.15
604 41 GORRIA HÉLÈNE V.PHARMA SD 18 1:04:30 04:56 12.15
605 1245 TOUPY SEBASTIEN   SH 362 1:04:30 04:56 12.15
606 1497 NAA CHRISTOPHE   V1 125 1:04:31 04:56 12.15
607 280 SIEMES JASON RENÉ   SH 363 1:04:32 04:56 12.14
608 1290 SCHMITS BENJAMIN   SH 364 1:04:33 04:57 12.14
609 2252 FAYS OLIVIER   JH 19 1:04:34 04:57 12.14
610 19 MOREAU PATRICE SULZER V1 126 1:04:34 04:57 12.14
611 2047 BACKAERT ALAN   SH 365 1:04:36 04:57 12.13
612 657 INFANTINO GEORGIA   SD 19 1:04:36 04:57 12.13
613 1905 BACCUS OSC'   SH 366 1:04:36 04:57 12.13
614 916 TEDESCO SALVATORE   V1 127 1:04:37 04:57 12.13
615 34 HORWARD FRANCOISE CHR VERVIERS A1 2 1:04:38 04:57 12.12
616 34997 GARROY CHRISTOPHE   V1 128 1:04:39 04:57 12.12
617 1671 HERROUDI JAMEL   V1 129 1:04:39 04:57 12.12
618 2112 ANGENOT BERNADETTE   V2 56 1:04:39 04:57 12.12
619 80 BARNABE SABINE CHR VERVIERS A2 4 1:04:39 04:57 12.12
620 74 BECKERS LAURENT CHR VERVIERS SH 367 1:04:41 04:57 12.11
621 229 ROOMANS CHRISTIAN ZONE DE SECOURS V2 57 1:04:42 04:57 12.11
622 65 AGNELLO REGIS   SH 368 1:04:45 04:57 12.10
623 926 KEIL YVES   V1 130 1:04:47 04:58 12.10
624 351 HAMDAOUI MOULOUD   SH 369 1:04:49 04:58 12.09
625 1563 SIMONS JOSIANE   A2 5 1:04:49 04:58 12.09
626 1284 THONUS JEAN MARCEL   SH 370 1:04:49 04:58 12.09
627 1446 BODSON PIERRE   SH 371 1:04:50 04:58 12.09
628 239 DEBATY JULIE EBAC SD 20 1:04:51 04:58 12.08
629 660 JASPAR CHRISTIAN   V3 13 1:04:52 04:58 12.08
630 269 SPRONCK HERVE   V1 131 1:04:52 04:58 12.08
631 1219 REIP OLIVIER   V1 132 1:04:53 04:58 12.08
632 472 ADAM MURIELLE   SD 21 1:04:55 04:58 12.07
633 954 HARDY SAMUEL   SH 372 1:04:56 04:58 12.07
634 2227 GEORGES MICHAEL   SH 373 1:04:56 04:58 12.07
635 500 BIETTON ALAIN   V2 58 1:04:59 04:59 12.06
636 2078 LIÉTAR FRANÇOIS SIMON   SH 374 1:04:59 04:59 12.06
637 987 CARPENTIER GRÉGORY   SH 375 1:05:00 04:59 12.06
638 1347 SMEETS JOEL   V2 59 1:05:02 04:59 12.05
639 2081 CHARLIER VALÉRY   V1 133 1:05:03 04:59 12.05
640 2311 EUGENE SEBASTIEN   V1 134 1:05:03 04:59 12.05
641 84 ORIGER NICOLAS CHR VERVIERS SH 376 1:05:04 04:59 12.04
642 306 HEINS LUC   V3 14 1:05:04 04:59 12.04
643 1392 BEN RAZEK AYACHI   V2 60 1:05:08 04:59 12.03
644 758 ORBAN SARAH   SD 22 1:05:08 04:59 12.03
645 638 HANS VINCENT   V1 135 1:05:10 04:59 12.02
646 2003 HUTSCHEMACKERS RÉGIS FREDDY   SH 377 1:05:10 04:59 12.02
647 848 WILLEMS LOUISE   SD 23 1:05:12 05:00 12.02
648 729 MARSOUL JULIEN   SH 378 1:05:13 05:00 12.02
649 1766 SCHWAIGER NOÉ   SH 379 1:05:14 05:00 12.01
650 1291 DEVIGNE JEAN-MICHEL   SH 380 1:05:17 05:00 12.00
651 1910 NR 1910   xxx   1:05:18 05:00 12.00
652 2058 MBUNDAKO ALAIN   SH 381 1:05:18 05:00 12.00
653 849 WINANDY GUY   V3 15 1:05:19 05:00 12.00
654 125 RYSENAER MARC DECATHLON VERVI V1 136 1:05:19 05:00 12.00
655 1297 GAVRAY THOMAS   SH 382 1:05:21 05:00 11.99
656 481 BARLA THOMAS   SH 383 1:05:21 05:00 11.99
657 1520 GIBULA YANICK   SH 384 1:05:22 05:00 11.99
658 1511 DUMOULIN DAVID   SH 385 1:05:23 05:00 11.98
659 1673 SORCE PINO   V1 137 1:05:24 05:00 11.98
660 1850 VERVIER MICHEL   V2 61 1:05:25 05:01 11.98
661 1408 MARQUET SERGE   V2 62 1:05:25 05:01 11.98
662 1679 DELTOUR AMAURY   SH 386 1:05:27 05:01 11.97
663 759 OUAHABI MOHAMED REDOUANE   JH 20 1:05:29 05:01 11.97
664 224 ROGGEMANS MARIE PERLAV SD 24 1:05:30 05:01 11.96
665 121 DOCQUIER THOMAS DECATHLON VERVI SH 387 1:05:30 05:01 11.96
666 1807 BROOK ADAM   SH 388 1:05:32 05:01 11.96
667 1849 JABAS BERNARD   V2 63 1:05:32 05:01 11.96
668 1278 CURNEL GINO   V2 64 1:05:34 05:01 11.95
669 715 LIÉGEOIS SYLVAIN   SH 389 1:05:34 05:01 11.95
670 1543 CHIODO LUIGI   V1 138 1:05:36 05:01 11.94
671 1651 LAHAYE OLIVIER   V1 139 1:05:37 05:01 11.94
672 2230 LEDENT QUENTIN   SH 390 1:05:37 05:01 11.94
673 272 WUIDART CHRISTEL   A1 3 1:05:38 05:02 11.94
674 1060 MOUREAU ADRIEN   SH 391 1:05:39 05:02 11.94
675 514 BROUWIER VINCENT   V1 140 1:05:39 05:02 11.94
676 607 ETIENNE LAURE   SD 25 1:05:39 05:02 11.94
677 2157 DAUMEN FRANÇOIS   SH 392 1:05:41 05:02 11.93
678 1199 POURTOIS JEAN   SH 393 1:05:42 05:02 11.93
679 2181 HANUSSEK HERVE   SH 394 1:05:43 05:02 11.92
680 1895 PAROTTE ANDRÉ JEAN   SH 395 1:05:44 05:02 11.92
681 2098 VAASSEN STEVEN SERGE   SH 396 1:05:44 05:02 11.92
682 982 EMONTS ANDY   V1 141 1:05:45 05:02 11.92
683 1409 GILSON JONATHAN   SH 397 1:05:45 05:02 11.92
684 2121 DONY OLIVIER GEORGES   V1 142 1:05:46 05:02 11.91
685 246 LEJEUNE BÉNÉDICTE EBAC SD 26 1:05:47 05:02 11.91
686 1693 MUYLKENS ARMELLE   SD 27 1:05:47 05:02 11.91
687 237 SCHNAKERS STÉPHANE EBAC SH 398 1:05:47 05:02 11.91
688 1828 BECKERS PATRICK   V2 65 1:05:48 05:02 11.91
689 1942 CONDE GILLES   SH 399 1:05:48 05:02 11.91
690 747 MOURANT STÉPHANE   SH 400 1:05:49 05:02 11.91
691 901 PIRENNE AURÉLIEN   SH 401 1:05:49 05:02 11.91
692 34982 JOWA PIERRE   V3 16 1:05:51 05:03 11.90
693 1569 RUTTEN CÉDRIC   SH 402 1:05:52 05:03 11.90
694 1445 HALLEUX SÉBASTIEN   SH 403 1:05:53 05:03 11.89
695 1215 KABERA SAMMY   SH 404 1:05:53 05:03 11.89
696 1247 SIMAR JEAN-LUC   V2 66 1:05:54 05:03 11.89
697 1498 NERRINCK GILLES   SH 405 1:05:57 05:03 11.88
698 115 WERTZ LUC CORMAN V2 67 1:05:57 05:03 11.88
699 1421 ZARADZKI DAVID   V1 143 1:05:58 05:03 11.88
700 1595 DELEDICQUE JEAN-LUC   V2 68 1:05:58 05:03 11.88
701 931 BALLAT THOMAS MARC   SH 406 1:06:01 05:03 11.87
702 606 ETIENNE VICTOR   V2 69 1:06:01 05:03 11.87
703 87 DELVOIE FRÉDERIC CHR VERVIERS V1 144 1:06:03 05:03 11.86
704 1663 WINTGENS SEBASTIEN   SH 407 1:06:03 05:03 11.86
705 2370 ROCKS FRANÇOIS ZONE DE SECOURS SH 408 1:06:05 05:04 11.86
706 1194 LOOZEN FRÉDÉRIC   SH 409 1:06:05 05:04 11.86
707 1419 ROWART OLIVIER   SH 410 1:06:05 05:04 11.86
708 763 PETERKENE GAETAN   SH 411 1:06:06 05:04 11.85
709 2352 FRERE GERALD SWDE V1 145 1:06:07 05:04 11.85
710 149 THILION BENJAMIN   SH 412 1:06:08 05:04 11.85
711 2241 DE RIDDER OLIVIER   SH 413 1:06:08 05:04 11.85
712 2302 DRUMMEN DORINE   SD 28 1:06:09 05:04 11.85
713 963 KUCKAERTZ NANCY   A2 6 1:06:09 05:04 11.85
714 1724 DESARCY JEAN-FRANÇOIS   V2 70 1:06:10 05:04 11.84
715 798 SCHOLZEN JOANNIE   SD 29 1:06:11 05:04 11.84
716 905 COUNET ARNAUD ANNE   SH 414 1:06:11 05:04 11.84
717 2328 TELLER ALICIA   SD 30 1:06:12 05:04 11.84
718 1889 SPRIMONT ARNAUD RENÉ   SH 415 1:06:13 05:04 11.83
719 675 KENNIS DOMINIQUE   V2 71 1:06:14 05:04 11.83
720 2077 LEGRAND LUC   V2 72 1:06:14 05:04 11.83
721 1354 TROQUAY HENRI   SH 416 1:06:14 05:04 11.83
722 466 ZADI NPADA MICHAEL-ARCHANGE   JH 21 1:06:17 05:05 11.82
723 34974 DE SAULNIER PASCAL   V1 146 1:06:18 05:05 11.82
724 408 QUADFLIEG JORDAN   SH 417 1:06:20 05:05 11.81
725 1582 LAUWERS PERRINE   SD 31 1:06:23 05:05 11.80
726 334 LAURENT MAXIME PHILIPPE   SH 418 1:06:24 05:05 11.80
727 1517 BENBOUALI KAMEL   V1 147 1:06:25 05:05 11.80
728 1643 CRASSON VINCENT   V3 17 1:06:25 05:05 11.80
729 623 GALLER MARIE   A1 4 1:06:26 05:05 11.80
730 1148 BURLÉON QUENTIN   SH 419 1:06:28 05:05 11.79
731 1115 DEJONG PIERRE-YVES   SH 420 1:06:28 05:05 11.79
732 1757 GAUTHY STÉPHANIE   SD 32 1:06:29 05:05 11.79
733 2313 GAUTHY JEAN-MICHEL   V2 73 1:06:29 05:05 11.79
734 571 DELWAIDE ANNE   A2 7 1:06:30 05:06 11.78
735 2107 LEJEUNE JORDANE   SH 421 1:06:30 05:06 11.78
736 2106 LEMAITRE PIERRE-YVES   SH 422 1:06:34 05:06 11.77
737 1599 LAOUREUX QUENTIN   SH 423 1:06:36 05:06 11.77
738 1179 FORTEMPS GUY   SH 424 1:06:36 05:06 11.77
739 1906 DILIBERTO FABIO   V1 148 1:06:38 05:06 11.76
740 34955 BOUHON UGO   SH 425 1:06:39 05:06 11.76
741 1750 WÉRY JULIEN   SH 426 1:06:40 05:06 11.75
742 1812 SORET XAVIER   SH 427 1:06:40 05:06 11.75
743 434 DEVILLE YVES   V2 74 1:06:40 05:06 11.75
744 1579 LAUWERS STEVE   V2 75 1:06:40 05:06 11.75
745 1311 BARRÉ VINCENT ALBERT   SH 428 1:06:42 05:06 11.75
746 510 BRIQUET NATHALIE   A2 8 1:06:42 05:06 11.75
747 721 LONNEUX MARCEL   V2 76 1:06:42 05:06 11.75
748 1696 GEYER BERT   V2 77 1:06:43 05:07 11.74
749 34996 ERNST MARGAUX   SD 33 1:06:43 05:07 11.74
750 1834 DELHEZ MAXIMILIEN   SH 429 1:06:43 05:07 11.74
751 2335 LAMBERT MAXIME   SH 430 1:06:43 05:07 11.74
752 482 BARTHOLÉMY THIERRY   V1 149 1:06:44 05:07 11.74
753 1885 BASILE ROUFOSSE   SH 431 1:06:45 05:07 11.74
754 1969 TREVI DOMI   V1 150 1:06:45 05:07 11.74
755 1557 VREVEN JULIEN   SH 432 1:06:46 05:07 11.74
756 2178 PAROTTE JEAN CHRISTOPHE   V1 151 1:06:47 05:07 11.73
757 34998 SCHUMACKER JOHNNY   V1 152 1:06:47 05:07 11.73
758 1938 MINY LAURENT   SH 433 1:06:49 05:07 11.73
759 529 CHEBIL RAMI   V1 153 1:06:50 05:07 11.72
760 476 ANGENOT CHRISTIAN   V2 78 1:06:51 05:07 11.72
761 1160 NR 1160   xxx   1:06:52 05:07 11.72
762 1118 GODDÉ CHRISTOPHE   SH 434 1:06:54 05:07 11.71
763 1805 LÉONARD ROSEMONDE   SD 34 1:06:55 05:07 11.71
764 2266 BEBRONNE KEVIN   SH 435 1:06:55 05:07 11.71
765 875 MORAY JULIEN ALEX   SH 436 1:06:56 05:08 11.71
766 978 VANDENHOVE LUDOVIC   SH 437 1:06:57 05:08 11.70
767 2113 HAUGLUSTAINE GILLES   V1 154 1:06:59 05:08 11.70
768 810 STRAUCH FABIENNE   A1 5 1:06:59 05:08 11.70
769 707 LEMAIRE CÉDRIC   SH 438 1:07:00 05:08 11.70
770 516 BRUHL BÉNÉDICTE   A1 6 1:07:00 05:08 11.70
771 1853 CRUTZEN PHILIPPE   V4 1 1:07:00 05:08 11.70
772 946 FABRY-VENTAT LAURIE   SD 35 1:07:00 05:08 11.70
773 1711 KASONGO JEAN-PAUL   V2 79 1:07:01 05:08 11.69
774 669 JUNKER HENRY-MARC   V3 18 1:07:02 05:08 11.69
775 169 PHILIPPE AUDREY CELABOR SD 36 1:07:06 05:08 11.68
776 1852 BENVENUTO SAMUEL   SH 439 1:07:09 05:09 11.67
777 1263 WITWROUW SACHA   JH 22 1:07:10 05:09 11.67
778 1967 BOUASSEM RAZIK   SH 440 1:07:11 05:09 11.66
779 116 BENNIS SALIM DECATHLON VERVI SH 441 1:07:12 05:09 11.66
780 1783 PIRON ANDRÉ   V3 19 1:07:12 05:09 11.66
781 555 DANDRIFOSSE SÉBASTIEN   SH 442 1:07:14 05:09 11.65
782 812 TASQUIN YANNICK   SH 443 1:07:14 05:09 11.65
783 489 BECKERS THOMAS   SH 444 1:07:14 05:09 11.65
784 1637 LOPEZ CELSO   V3 20 1:07:15 05:09 11.65
785 1121 THONON VINCENT   V1 155 1:07:15 05:09 11.65
786 88 FLAS ANNE-MARIE CHR VERVIERS A1 7 1:07:15 05:09 11.65
787 1313 THEODOSIADIS ANTOINE   SH 445 1:07:16 05:09 11.65
788 235 LEGRAND GEOFFRAY EBAC SH 446 1:07:16 05:09 11.65
789 2261 KOUJILI NABIL   JH 23 1:07:16 05:09 11.65
790 1650 FRANKIGNOULLE RAPHAEL   SH 447 1:07:16 05:09 11.65
791 983 LAMBERT CHRISTOPHE   SH 448 1:07:18 05:09 11.64
792 906 SABEL ROBIN   SH 449 1:07:19 05:09 11.64
793 2305 WILLEM MARIE   A1 8 1:07:21 05:09 11.63
794 567 DELREZ SANDRA   A1 9 1:07:21 05:09 11.63
795 2071 SCHOONBROODT AUDRIC   SH 450 1:07:23 05:10 11.63
796 957 BROUWERS MICHAEL   SH 451 1:07:27 05:10 11.62
797 2128 DECHESNE JÉRÔME   SH 452 1:07:28 05:10 11.61
798 1508 DIAZ RUIZ MAGALY   A1 10 1:07:30 05:10 11.61
799 549 CUTILLO MARCEL   V1 156 1:07:30 05:10 11.61
800 1253 DEFRANCE ANNE   SD 37 1:07:30 05:10 11.61
801 1975 ALYSSON MOSSAY   SD 38 1:07:31 05:10 11.61
802 1758 TUBEECKX FONS   V3 21 1:07:31 05:10 11.61
803 778 RAMAKERS DOMINIQUE   A2 9 1:07:31 05:10 11.61
804 1537 WILLEMS FRÉDÉRIC   V1 157 1:07:32 05:10 11.60
805 51 SANGLIER KEVIN MEURENS NATURAL SH 453 1:07:33 05:10 11.60
806 34950 LAHAYE BENOÎT   SH 454 1:07:35 05:10 11.59
807 902 NR 902   xxx   1:07:35 05:10 11.59
808 379 GILLET CAROLINE HUGUETTE   A1 11 1:07:39 05:11 11.58
809 228 MANSET ANTHONY ZONE DE SECOURS SH 455 1:07:39 05:11 11.58
810 2288 LECLERCQ EMMANUEL   V1 158 1:07:40 05:11 11.58
811 1031 BELBOOM ANDRÉ   V2 80 1:07:40 05:11 11.58
812 1741 LÉONARD STEVE   SH 456 1:07:41 05:11 11.58
813 1423 ARNO ZANELLA   SH 457 1:07:42 05:11 11.57
814 40 DEMOL CINDY V.PHARMA A1 12 1:07:43 05:11 11.57
815 2183 BENOIT CHRISTOPHE   SH 458 1:07:44 05:11 11.57
816 213 SANGIOVANNI VALTER ESSITY BELGIUM V2 81 1:07:45 05:11 11.57
817 1635 RUWET PASCAL   V2 82 1:07:45 05:11 11.57
818 823 TROVATO ETIENNE   JH 24 1:07:47 05:11 11.56
819 1904 COURTOY MATTHIEU   SH 459 1:07:48 05:11 11.56
820 217 FRANCOIS JORDAN   SH 460 1:07:49 05:12 11.55
821 807 SOMJA JEAN-PHILIPPE   SH 461 1:07:50 05:12 11.55
822 44 JOLY SÉBASTIEN V.PHARMA V1 159 1:07:50 05:12 11.55
823 245 AUTMANNS FANNY EBAC SD 39 1:07:51 05:12 11.55
824 106 JOB RENÉ CORMAN V2 83 1:07:52 05:12 11.55
825 2063 WOLFF BERTHOLD   V3 22 1:07:53 05:12 11.54
826 923 LÉONARD GEOFFREY   SH 462 1:07:53 05:12 11.54
827 1646 LIBERMÉ MARTIN   SH 463 1:07:53 05:12 11.54
828 1220 MORIANI ISABELLE   A1 13 1:07:55 05:12 11.54
829 1956 JOSSE NOEL   SH 464 1:07:55 05:12 11.54
830 377 MAWET LOÏC JEAN   SH 465 1:07:56 05:12 11.53
831 270 NR 270   xxx   1:08:02 05:13 11.52
832 2158 FAUVIAUX THOMAS   SH 466 1:08:05 05:13 11.51
833 774 PLUNUS OCÉANE   SD 40 1:08:06 05:13 11.51
834 754 NOLS JEAN-MARIE   V3 23 1:08:08 05:13 11.50
835 201 HOUARI ELBAKAY VINVENTIONS SH 467 1:08:08 05:13 11.50
836 2357 CHOFFRAY STEPHANE SWDE SH 468 1:08:11 05:13 11.49
837 1991 WAUTELET GAËTAN GHISLAIN   SH 469 1:08:11 05:13 11.49
838 625 GATEZ SEBASTIEN   V1 160 1:08:12 05:13 11.49
839 2314 GASPAR OLIVIER   V2 84 1:08:13 05:13 11.49
840 35001 BECKERS DAMIEN   SH 470 1:08:14 05:13 11.48
841 35005 MAES LAURENT   V1 161 1:08:14 05:13 11.48
842 2238 LÉONARD BERTRAND JOSEPH   V1 162 1:08:15 05:14 11.48
843 35 ZEEVAERT JEAN-BAPTISTE CHR VERVIERS SH 471 1:08:19 05:14 11.47
844 1870 TROISFONTAINES DELPHINE   A1 14 1:08:20 05:14 11.47
845 939 REIP VINCENT EDOUARD   SH 472 1:08:20 05:14 11.47
846 109 SPEETJENS JACQUES CORMAN V1 163 1:08:24 05:14 11.46
847 1977 RYCKEBUSCH CYRILLE   V4 2 1:08:24 05:14 11.46
848 2074 DE BROGNIEZ KYLIAN   SH 473 1:08:24 05:14 11.46
849 724 LOUVIAUX CINDY   A1 15 1:08:25 05:14 11.45
850 961 REYNAERS RAPHAËL   SH 474 1:08:27 05:14 11.45
851 313 GENREITH VINCENT   V2 85 1:08:28 05:15 11.44
852 311 COPPE SIGRID   A1 16 1:08:29 05:15 11.44
853 591 DOSSERAY ROGER   V4 3 1:08:31 05:15 11.44
854 996 MONTE MAGALI   SD 41 1:08:33 05:15 11.43
855 995 SCHMATZ OLIVIER   V1 164 1:08:33 05:15 11.43
856 815 THEUNISSEN VINCENT   V1 165 1:08:35 05:15 11.43
857 1269 ANDRIEN ROMAIN   SH 475 1:08:38 05:15 11.42
858 1554 LECRENIER MAXIME   SH 476 1:08:41 05:16 11.41
859 1112 BLOEMEN VALENTINE   SD 42 1:08:42 05:16 11.41
860 1971 LECLERCQ SABRINA   A1 17 1:08:43 05:16 11.40
861 1691 MORANA EDUARDO   V2 86 1:08:44 05:16 11.40
862 2012 CHOJNACKI LUCAS   SH 477 1:08:44 05:16 11.40
863 1169 DETHIER PIERRE   V2 87 1:08:45 05:16 11.40
864 816 THIELEN NICOLAS   V1 166 1:08:48 05:16 11.39
865 1983 VANDER HEYDEN LOIC   SH 478 1:08:48 05:16 11.39
866 1203 GILSON CÉDRIC   SH 479 1:08:48 05:16 11.39
867 53 DELEIXHE GUILLAUME MEURENS NATURAL SH 480 1:08:48 05:16 11.39
868 1887 ROUSSEAU SYLVAIN   SH 481 1:08:51 05:16 11.38
869 867 BOUHON OLIVIER FERNAND   SH 482 1:08:51 05:16 11.38
870 197 COLSON MARINE VINVENTIONS SD 43 1:08:54 05:17 11.37
871 802 SCIACCA LUIGI   V1 167 1:08:55 05:17 11.37
872 2400 DEGIVES RENAUD SWDE V2 88 1:08:55 05:17 11.37
873 1267 HORGNIES JEAN-FRANÇOIS   SH 483 1:08:58 05:17 11.36
874 528 CHAVANNE ANTOINE   SH 484 1:08:59 05:17 11.36
875 1262 PYR STEVE   SH 485 1:08:59 05:17 11.36
876 871 HRDLICKA TOMAS   SH 486 1:09:01 05:17 11.35
877 271 PIERRE FABIAN   V1 168 1:09:02 05:17 11.35
878 49 EL BOUZAIDI ABDOU V.PHARMA V2 89 1:09:02 05:17 11.35
879 199 ROBERT CHRISTOPHE VINVENTIONS V1 169 1:09:03 05:17 11.35
880 1524 PIERRE JUNGBLUT   xxx   1:09:04 05:17 11.35
881 616 FITSCHY YVAN   V1 170 1:09:04 05:17 11.35
882 1305 DHEUR CHRISTOPHE MICHEL   SH 487 1:09:05 05:17 11.34
883 1848 BONHOMME ANNA   SD 44 1:09:05 05:17 11.34
884 1355 DOUDEET MARTINE   A1 18 1:09:06 05:17 11.34
885 244 BIRTI KATHLEEN EBAC SD 45 1:09:06 05:17 11.34
886 1597 SCHNAKERS OLIVIER   SH 488 1:09:07 05:18 11.34
887 1965 BONHOMME RAPHAEL   SH 489 1:09:07 05:18 11.34
888 727 MARECHAL BERNADETTE   A2 10 1:09:10 05:18 11.33
889 2253 KOURIR OUAFIK   SH 490 1:09:11 05:18 11.33
890 1868 DETRAUX ROLAND   V2 90 1:09:11 05:18 11.33
891 1993 CAMPIONE JULIETTE MARIE   SD 46 1:09:13 05:18 11.32
892 801 SCHYNS BASTIEN   SH 491 1:09:14 05:18 11.32
893 2236 CORNÉLIS PIERRE-YVES JEAN   V1 171 1:09:14 05:18 11.32
894 917 KADIOGLU ISMAIL   V1 172 1:09:15 05:18 11.32
895 1339 DELVA JEAN-PAUL   V3 24 1:09:15 05:18 11.32
896 2360 STEILS SARAH SWDE SD 47 1:09:17 05:18 11.31
897 2356 POTTIER PHILIPPE SWDE V2 91 1:09:18 05:18 11.31
898 1923 COUNET ADRIEN   SH 492 1:09:18 05:18 11.31
899 2316 LIEGEOIS OLIVIER   V2 92 1:09:20 05:19 11.30
900 34962 AGNOLI ATTILIO   SH 493 1:09:20 05:19 11.30
901 406 GABRIEL TITO   SH 494 1:09:20 05:19 11.30
902 1890 ESER FATIH   V1 173 1:09:21 05:19 11.30
903 2257 NIESTEN CAROLE   SD 48 1:09:22 05:19 11.30
904 34959 GLAUDOT GUILLAUME   SH 495 1:09:22 05:19 11.30
905 34956 JANSSENS CHARLES   SH 496 1:09:22 05:19 11.30
906 1567 BAILLY LUC   V2 93 1:09:23 05:19 11.29
907 1442 SANCHEZ JOSE   V1 174 1:09:24 05:19 11.29
908 584 DETRIXHE CHRISTOPHE   V1 175 1:09:24 05:19 11.29
909 820 TIMMERS LAURENT   SH 497 1:09:26 05:19 11.29
910 1314 SCHILS VALENTIN VICTOR   SH 498 1:09:26 05:19 11.29
911 771 PIROSON CHRISTIAN   V1 176 1:09:27 05:19 11.28
912 1370 PHILIPPE PETERS   V1 177 1:09:27 05:19 11.28
913 348 BEN SELLAM IBRAHIM   SH 499 1:09:27 05:19 11.28
914 950 HUBERT VINCENT   V1 178 1:09:28 05:19 11.28
915 1496 VANCSOK CATHERINE   SD 49 1:09:29 05:19 11.28
916 1884 PIERROT ROUFOSSE   SH 500 1:09:29 05:19 11.28
917 1266 TIRTIAUX PHILIPPE   V3 25 1:09:29 05:19 11.28
918 1858 BONIVER ERIC   V2 94 1:09:29 05:19 11.28
919 825 VALEMBOIS QUENTIN   SH 501 1:09:30 05:19 11.27
920 1530 DELAHAUT NUMA   SH 502 1:09:30 05:19 11.27
921 267 DUMONT MARIANNE   A1 19 1:09:31 05:19 11.27
922 546 COUNET PETER   V1 179 1:09:31 05:19 11.27
923 1465 ERNST ANDRÉ   V2 95 1:09:35 05:20 11.26
924 1708 LOESENBORGH CHARLES   SH 503 1:09:36 05:20 11.26
925 785 RIGA PHILIPPE   V2 96 1:09:36 05:20 11.26
926 908 CASTREMAN JÉRÔME JOËLLE   SH 504 1:09:37 05:20 11.26
927 1039 WILLIAM ZONTA   SH 505 1:09:39 05:20 11.25
928 979 KELDERMANS SAM   SH 506 1:09:42 05:20 11.24
929 1320 STRYCKERS KRISTOF   SH 507 1:09:43 05:20 11.24
930 1759 JACQUOT LAURENT   SH 508 1:09:44 05:20 11.24
931 1837 SERVAIS BENOIT   V1 180 1:09:45 05:20 11.23
932 2346 AMEN AURORE   SD 50 1:09:45 05:20 11.23
933 2008 SCHLECK CHRISTOPHE   SH 509 1:09:45 05:20 11.23
934 1250 PEUTAT ANTOINE   JH 25 1:09:47 05:21 11.23
935 1932 DOYEN SEBASTIEN   SH 510 1:09:50 05:21 11.22
936 663 JONLET YVES   V2 97 1:09:52 05:21 11.22
937 449 ETIENNE BERNARD   V2 98 1:09:53 05:21 11.21
938 91 LUXEN OLIVIER   SH 511 1:09:54 05:21 11.21
939 1368 WIERTZ ARNAUD   SH 512 1:09:54 05:21 11.21
940 1774 RADOUX SÉBASTIEN   SH 513 1:09:55 05:21 11.21
941 942 CAPART PIERRE   V2 99 1:09:55 05:21 11.21
942 1960 PALOTAI TIM   SH 514 1:09:56 05:21 11.20
943 1271 MATHIEU CAMILLE   SD 51 1:09:57 05:21 11.20
944 1165 PAROTTE CÉDRIC   V1 181 1:09:57 05:21 11.20
945 1751 SCHIPPERS VIRGINIE   SD 52 1:09:59 05:22 11.20
946 412 LHERMITTE MICHEL   V2 100 1:09:59 05:22 11.20
947 1399 BODEUX JEAN-MICHEL   SH 515 1:10:02 05:22 11.19
948 1322 NR 1322   xxx   1:10:02 05:22 11.19
949 1731 MAXIME ACHAB   SH 516 1:10:03 05:22 11.19
950 1661 HARDY GEOFFREY   V1 182 1:10:03 05:22 11.19
951 824 TYCHON FRANÇOISE   A2 11 1:10:03 05:22 11.19
952 459 ESPOSITO CALOGERO   JH 26 1:10:04 05:22 11.18
953 1326 DEMONCEAU ANDY   SH 517 1:10:05 05:22 11.18
954 34990 VANDEBEEK QUENTIN   SH 518 1:10:06 05:22 11.18
955 693 LECLERE JEAN FRÉDÉRIC   V1 183 1:10:09 05:22 11.17
956 433 SALVE GAUTHIER   SH 519 1:10:10 05:22 11.17
957 151 ROUCEAU AUDRIC   SH 520 1:10:11 05:22 11.16
958 310 LOOYENS YVES JEAN   V1 184 1:10:11 05:22 11.16
959 1489 CHARLIER MANU   V2 101 1:10:12 05:23 11.16
960 2245 BOZARD CHRISTOPHE   SH 521 1:10:14 05:23 11.16
961 320 LARBUISSON JESSICA   SD 53 1:10:15 05:23 11.15
962 120 THONON MARIE-PIERRE DECATHLON VERVI SD 54 1:10:16 05:23 11.15
963 1804 REUTER CYRIELLE   SD 55 1:10:18 05:23 11.15
964 455 PALM RACHEL   SD 56 1:10:19 05:23 11.14
965 1331 BODSON MANON   SD 57 1:10:20 05:23 11.14
966 2320 LERUITTE SOPHIE   A1 20 1:10:23 05:23 11.13
967 27 MERCIER GRÉGORY   SH 522 1:10:24 05:23 11.13
968 725 LOUWET DAVID   SH 523 1:10:25 05:24 11.13
969 1275 ZIEMONS MARION   JF 2 1:10:26 05:24 11.13
970 2065 THOMAS XAVIER   V1 185 1:10:27 05:24 11.12
971 1785 FERNANDEZ HERRERA BERNARD   V1 186 1:10:29 05:24 11.12
972 1737 GILBERT QUENTIN   SH 524 1:10:31 05:24 11.11
973 1006 LAHAYE FRANÇOIS   SH 525 1:10:31 05:24 11.11
974 10 BASTIN VINCENT ZONE DE SECOURS V1 187 1:10:32 05:24 11.11
975 2009 DAOUST SOPHIE   A1 21 1:10:32 05:24 11.11
976 2301 MANNENS CAROLE   A1 22 1:10:32 05:24 11.11
977 488 BEAUWENS MAGALI   SD 58 1:10:32 05:24 11.11
978 827 VANDERHEYDEN SABINE   A2 12 1:10:33 05:24 11.11
979 2160 CAHAY JULIEN   SH 526 1:10:34 05:24 11.10
980 2211 AL ASSOUAD THOMAS   SH 527 1:10:34 05:24 11.10
981 32 KNUBBEN MURIEL   A1 23 1:10:35 05:24 11.10
982 353 WYDOOGHE LUCAS STÉPHANE   JH 27 1:10:37 05:24 11.10
983 2062 DE LA CERDA WILLIAM   JH 28 1:10:40 05:25 11.09
984 1536 LEDAIN THOMAS   SH 528 1:10:40 05:25 11.09
985 1334 DIMANCHE DANAÉ   SD 59 1:10:43 05:25 11.08
986 1826 BERNIER RODOLPHE   SH 529 1:10:43 05:25 11.08
987 1640 LENZ MARC GOHY S.A. V2 102 1:10:44 05:25 11.08
988 1017 QUICKELS VINCENT   V1 188 1:10:49 05:25 11.06
989 95 BOUCHOMS DELPHINE ARAHF SD 60 1:10:51 05:26 11.06
990 765 PIETTE VALÈRE   V1 189 1:10:54 05:26 11.05
991 2260 PIRON SARAH   SD 61 1:10:55 05:26 11.05
992 2259 DEROANNE ADRIEN   SH 530 1:10:55 05:26 11.05
993 2306 GILLET ROMAIN   SH 531 1:10:57 05:26 11.04
994 970 LEGRAND SOPHIE   SD 62 1:10:58 05:26 11.04
995 1675 GRANDJEAN JEAN-LUC   V2 103 1:10:59 05:26 11.04
996 491 BECKERS ANAÏS   JF 3 1:11:01 05:26 11.03
997 2141 CAMMARATA LORIS   SH 532 1:11:01 05:26 11.03
998 1880 BONNY JONATHAN   SH 533 1:11:01 05:26 11.03
999 1468 JOVENAU STEPHEN   V1 190 1:11:03 05:26 11.03
1000 1978 STAES-POLET SABINE   SD 63 1:11:04 05:27 11.03
1001 126 PIRONNET DAVID DECATHLON VERVI SH 534 1:11:06 05:27 11.02
1002 2154 COLLARD JULIEN EDWIN   SH 535 1:11:08 05:27 11.02
1003 185 DELCOUR CÉDRIC JALHAY ADMINIST SH 536 1:11:09 05:27 11.01
1004 859 SORET MARLENE   SD 64 1:11:10 05:27 11.01
1005 683 LAMBERT CARINE   A1 24 1:11:10 05:27 11.01
1006 1242 MOMMER GUY   V2 104 1:11:11 05:27 11.01
1007 613 FEY PHILIPPE   V2 105 1:11:12 05:27 11.01
1008 1555 PIRONET ELODIE   SD 65 1:11:13 05:27 11.00
1009 409 MULLER NICOLAS   SH 537 1:11:14 05:27 11.00
1010 1746 CUTHBERT DOMINIC   V1 191 1:11:14 05:27 11.00
1011 821 TOUSSAINT CAROLE   SD 66 1:11:17 05:27 10.99
1012 1596 STRAETMANS HENRI   V3 26 1:11:18 05:28 10.99
1013 885 GRAEVEN TOBIAS   SH 538 1:11:19 05:28 10.99
1014 1589 DUPONT DOMINIQUE   V2 106 1:11:19 05:28 10.99
1015 608 FACEN BÉATRICE   A3 1 1:11:20 05:28 10.98
1016 1330 DAHNER DIEGO   SH 539 1:11:20 05:28 10.98
1017 1535 JULIEN THIBAULT   SH 540 1:11:22 05:28 10.98
1018 186 HORWARD BÉNÉDICTE JALHAY ADMINIST A1 25 1:11:23 05:28 10.98
1019 866 BOUHON FERNAND   V2 107 1:11:24 05:28 10.97
1020 2037 MAKRYGIANNIS GEORGIOS   SH 541 1:11:24 05:28 10.97
1021 34969 ROSSIUS DAVID   V1 192 1:11:26 05:28 10.97
1022 152 PLUMAT DORIAN   SH 542 1:11:26 05:28 10.97
1023 2247 KNAPP THOMAS   SH 543 1:11:27 05:28 10.97
1024 1684 MAXIME SEIVERT   SH 544 1:11:27 05:28 10.97
1025 1590 CARBONI ALEX   SH 545 1:11:27 05:28 10.97
1026 1484 XHROUET BENOIT   V1 193 1:11:28 05:28 10.96
1027 603 EL BALDI FATIHA   A1 26 1:11:29 05:28 10.96
1028 118 MEYER JOCELYNE DECATHLON VERVI A1 27 1:11:30 05:28 10.96
1029 190 BUSCHGENS NATHALIE MUTUALITÉ CHRÉT A1 28 1:11:30 05:28 10.96
1030 828 VANDERHEYDEN CLAUDINE   A1 29 1:11:32 05:29 10.95
1031 327 SANGIOVANNI MICHAËL GEORGES   SH 546 1:11:32 05:29 10.95
1032 697 LEGROS FRANCIS   V2 108 1:11:32 05:29 10.95
1033 427 WYDOOGHE THOMAS PHILIPPE   SH 547 1:11:33 05:29 10.95
1034 958 CERFONTAINE LUDIVINE   SD 67 1:11:33 05:29 10.95
1035 1825 TASQUIN GUILLAUME   SH 548 1:11:33 05:29 10.95
1036 335 DETHIER JULIEN FRANCIS   SH 549 1:11:34 05:29 10.95
1037 1809 LALOUX HELENE   SD 68 1:11:34 05:29 10.95
1038 1581 SFERRAZZA PAPA DEBORAH   SD 69 1:11:35 05:29 10.95
1039 873 GROGNA QUENTIN   SH 550 1:11:36 05:29 10.94
1040 1933 BENOIT GILSON   V2 109 1:11:36 05:29 10.94
1041 404 HOUNJE FREDDY NICOLAS   V3 27 1:11:38 05:29 10.94
1042 716 LINCE GUY   V3 28 1:11:39 05:29 10.94
1043 1790 RIBANT NATHALIE   SD 70 1:11:39 05:29 10.94
1044 1363 PLUMACKER ROXANE   SD 71 1:11:41 05:29 10.93
1045 1600 FRISÉE MARIETTE   A3 2 1:11:41 05:29 10.93
1046 1833 DELHEZ NICOLAS   SH 551 1:11:43 05:29 10.93
1047 1980 PIEDBOEUF ARMAND   SH 552 1:11:44 05:30 10.92
1048 1985 LALLEMAND OLIVIER   SH 553 1:11:44 05:30 10.92
1049 2114 SCHYNS EGIDE   V2 110 1:11:46 05:30 10.92
1050 1259 WILVERTZ JORDAN   SH 554 1:11:46 05:30 10.92
1051 1616 DELHEZ ALBERT   V3 29 1:11:47 05:30 10.92
1052 736 MAZZULLI MARC   V1 194 1:11:50 05:30 10.91
1053 1117 SOMJA ALAIN FRANÇOIS   SH 555 1:11:50 05:30 10.91
1054 122 MARCHAND ARNAUD DECATHLON VERVI SH 556 1:11:52 05:30 10.90
1055 1989 SCHROUBEN JULIE   A1 30 1:11:54 05:30 10.90
1056 1277 SLUYSMANS DANIEL   V2 111 1:11:54 05:30 10.90
1057 2087 DOHOGNE SANDRINE   A1 31 1:11:54 05:30 10.90
1058 258 LAGASSE THOMAS PURATOS SH 557 1:11:55 05:30 10.90
1059 1670 SCAPIN ROBERT   V2 112 1:11:56 05:30 10.89
1060 2397 THELEN CLAIRE SWDE A1 32 1:11:56 05:30 10.89
1061 1312 VAN BRACKEL MICHEL   V2 113 1:11:56 05:30 10.89
1062 467 ZADI NPADA JUNIOR   JH 29 1:11:57 05:31 10.89
1063 1140 JURKOWSKI RAPHAËL JEAN-PIERRE   V1 195 1:11:57 05:31 10.89
1064 2049 JORIS JUKIEN   SH 558 1:12:00 05:31 10.88
1065 695 LEGAIX DANY   V2 114 1:12:00 05:31 10.88
1066 2186 STAS ZOE   SD 72 1:12:01 05:31 10.88
1067 1518 PETERS BAPTISTE GOHY S.A. SH 559 1:12:03 05:31 10.88
1068 1699 VAN KERKHOVEN MARTIN   SH 560 1:12:03 05:31 10.88
1069 561 DE ZEEUW HUGO   JH 30 1:12:06 05:31 10.87
1070 1332 DEFOURNY JORDAN   SH 561 1:12:07 05:31 10.87
1071 984 RENAERS STEPHANE   V2 115 1:12:08 05:31 10.86
1072 1827 KONINGS NATHALIE   A1 33 1:12:08 05:31 10.86
1073 2045 VINASSA TANGUY   SH 562 1:12:09 05:31 10.86
1074 1866 HAMOIR AUDE   SD 73 1:12:10 05:32 10.86
1075 429 HENDRICK THIERRY ARTHUR   V3 30 1:12:10 05:32 10.86
1076 658 ISERENTANT GREGORY   SH 563 1:12:13 05:32 10.85
1077 1642 WISLEZ THOMAS GOHY S.A. SH 564 1:12:14 05:32 10.85
1078 601 DUYSENS JEANNOT   V3 31 1:12:16 05:32 10.84
1079 143 KREUSCH YANNICK   SH 565 1:12:17 05:32 10.84
1080 2274 HAUSEUX CHRISTOPHE   V2 116 1:12:18 05:32 10.84
1081 509 BREUER CLAIRE   A1 34 1:12:18 05:32 10.84
1082 1422 N'GUESSAN GLEN   SH 566 1:12:18 05:32 10.84
1083 1917 CORNETTE JEAN MICHEL   V2 117 1:12:19 05:32 10.84
1084 1431 PIRARD LUCAS   SH 567 1:12:20 05:32 10.83
1085 907 SABEL MAXIME MARCEL   SH 568 1:12:21 05:32 10.83
1086 1116 LAMBERT MICHAËL   SH 569 1:12:22 05:32 10.83
1087 2332 FETTWEIS BERTRAND   SH 570 1:12:23 05:33 10.83
1088 640 HANSROUL NICOLAS   SH 571 1:12:23 05:33 10.83
1089 55 AALBERTS FABRICE V.PHARMA V1 196 1:12:24 05:33 10.82
1090 1282 AUBIER PHILIPPE   SH 572 1:12:25 05:33 10.82
1091 1847 DENOOZ AXEL   V1 197 1:12:26 05:33 10.82
1092 1607 LEMAIRE QUENTIN   SH 573 1:12:26 05:33 10.82
1093 566 DELHEZ ALBERT   V3 32 1:12:26 05:33 10.82
1094 2011 COJNACKI OLIVIER   V2 118 1:12:26 05:33 10.82
1095 448 LEJEUNE PHILIP   V3 33 1:12:27 05:33 10.82
1096 2228 MICHA ALINE   SD 74 1:12:27 05:33 10.82
1097 2097 NALBOU KARIM   SH 574 1:12:28 05:33 10.81
1098 972 LUCAS YVES   SH 575 1:12:28 05:33 10.81
1099 1725 BOURSIE JOSEPH   V4 4 1:12:29 05:33 10.81
1100 723 LORQUET DELPHINE   SD 75 1:12:29 05:33 10.81
1101 1572 GUILLEMARD DIDIER   V3 34 1:12:30 05:33 10.81
1102 993 BONGERS GUY   V2 119 1:12:30 05:33 10.81
1103 903 LIEGEOIS MICHEL   V2 120 1:12:31 05:33 10.81
1104 1974 CALTABELLOTTA PATRICK CHRISTOPHE   V1 198 1:12:31 05:33 10.81
1105 992 KIEBOOMS JAN   V2 121 1:12:31 05:33 10.81
1106 1204 FRANCOIS MICHAEL   SH 576 1:12:31 05:33 10.81
1107 1111 DOUMEN RAPHAËL   SH 577 1:12:32 05:33 10.80
1108 1010 FOCÀ MARCELLO   V1 199 1:12:32 05:33 10.80
1109 2134 GAILLARD FLORIAN MICHEL   SH 578 1:12:32 05:33 10.80
1110 39 DEVAUX SÉVERINE V.PHARMA SD 76 1:12:34 05:33 10.80
1111 1743 LOHEST ALAIN   V3 35 1:12:34 05:33 10.80
1112 1792 VAN HEES ETIENNE   V2 122 1:12:35 05:33 10.80
1113 1925 PETERS JEAN   SH 579 1:12:35 05:33 10.80
1114 34999 VANCAEYZEELE BENEDITE   A1 35 1:12:37 05:34 10.79
1115 1307 DUYSENS DAMIEN   SH 580 1:12:40 05:34 10.78
1116 1685 PAQUAY MARC   V1 200 1:12:40 05:34 10.78
1117 904 OUADNOUNI M BAREK   SH 581 1:12:41 05:34 10.78
1118 1487 SPRONCK CHRISTIAN   V2 123 1:12:41 05:34 10.78
1119 678 KLEYNTSSENS ERIC   V1 201 1:12:41 05:34 10.78
1120 1490 LASCHET SARAH   SD 77 1:12:42 05:34 10.78
1121 894 GIOVANELLI RENAUD CHRISTIAN   SH 582 1:12:45 05:34 10.77
1122 991 POTTIER THIERRY   SH 583 1:12:46 05:34 10.77
1123 1683 NIKAS YANNI   V2 124 1:12:46 05:34 10.77
1124 1533 LETAWE AURÉLIEN   SH 584 1:12:46 05:34 10.77
1125 895 HOUET ERIC   SH 585 1:12:47 05:34 10.77
1126 283 DARDENNE PHILIPPE   V2 125 1:12:47 05:34 10.77
1127 61 CAUFRIER TOM   xxx   1:12:48 05:34 10.76
1128 2084 CREME DANIEL   V2 126 1:12:48 05:34 10.76
1129 2246 HEUSE JONAS   SH 586 1:12:54 05:35 10.75
1130 2175 KERN CHRISTIAN   V1 202 1:12:54 05:35 10.75
1131 1343 MARLET MALORIE   SD 78 1:12:54 05:35 10.75
1132 694 LECLUSE NATHALIE   A1 36 1:12:55 05:35 10.75
1133 960 LABAYE DOROTHÉE   SD 79 1:12:56 05:35 10.74
1134 1218 GHARBI BRAHIM   SH 587 1:12:57 05:35 10.74
1135 1036 STRUZIK JULIE SANDRINE   SD 80 1:12:57 05:35 10.74
1136 1315 TOMBEUX HEEWON   SD 81 1:12:57 05:35 10.74
1137 297 PERSEGOL LENAIC   SH 588 1:12:58 05:35 10.74
1138 1507 LEGROS ELISE   SD 82 1:12:58 05:35 10.74
1139 1113 LIÉGEOIS BENJAMIN   SH 589 1:12:58 05:35 10.74
1140 2283 LENAERTS MURIELLE   A2 13 1:12:59 05:35 10.74
1141 34993 SCHOONBROODT HERVÉ   SH 590 1:12:59 05:35 10.74
1142 611 FETTWEIS GAËLLE   SD 83 1:13:00 05:35 10.73
1143 1478 ROEMERS JULIEN   SH 591 1:13:02 05:36 10.73
1144 163 ANNET JEAN-FRANÇOIS   V2 127 1:13:05 05:36 10.72
1145 147 TRAVAGLIANTI FABRICE   SH 592 1:13:06 05:36 10.72
1146 708 LEMOINE CAMILLE   SD 84 1:13:08 05:36 10.71
1147 2060 BIEDER JORDAN   SH 593 1:13:11 05:36 10.71
1148 2340 JULIEN PETRUZZELLI   SH 594 1:13:14 05:36 10.70
1149 1761 THONART MARC   V1 203 1:13:15 05:37 10.70
1150 1134 HOCHSTENBACH SABINE   A1 37 1:13:15 05:37 10.70
1151 655 HUMBLET XAVIER   V1 204 1:13:16 05:37 10.69
1152 2118 WERTZ BERNARD   V3 36 1:13:16 05:37 10.69
1153 31 COUVREUR CHARLY   V3 37 1:13:16 05:37 10.69
1154 1574 BURHENNE FABIAN   SH 595 1:13:17 05:37 10.69
1155 795 SCHATAS AURÉLIE   SD 85 1:13:19 05:37 10.69
1156 288 LEJEUNE PATRICK GUY   V2 128 1:13:19 05:37 10.69
1157 2147 MASSON GAYLORD   SH 596 1:13:19 05:37 10.69
1158 477 ANSION ISABELLE   A1 38 1:13:20 05:37 10.69
1159 1625 HAGELSTEENS MARC   V1 205 1:13:21 05:37 10.68
1160 2399 SCHILD MARGAUX SWDE SD 86 1:13:23 05:37 10.68
1161 1335 JORIS FRANÇOISE   A2 14 1:13:25 05:37 10.67
1162 2182 RENNOTT RAPHAEL   V1 206 1:13:26 05:37 10.67
1163 34954 BAQUET BENJAMIN   SH 597 1:13:27 05:37 10.67
1164 659 JANSSEN MARIE   A2 15 1:13:28 05:38 10.67
1165 1011 JOVENAU CLAUDE   A2 16 1:13:28 05:38 10.67
1166 2169 MEUNIER NICOLAS   SH 598 1:13:30 05:38 10.66
1167 1372 BISSOT ALAIN   V1 207 1:13:31 05:38 10.66
1168 1648 PATOUT ARNAUD   SH 599 1:13:32 05:38 10.66
1169 1601 MONAMI SERGE   V2 129 1:13:32 05:38 10.66
1170 1056 ANCION JEAN-PASCAL DOMINIQUE   V2 130 1:13:37 05:38 10.64
1171 1534 MARTINEZ AMÉLIA   A1 39 1:13:37 05:38 10.64
1172 133 GROENEWEGEN GILLES FAGNES SH 600 1:13:39 05:38 10.64
1173 634 GLESNER LAURE-ANNE   SD 87 1:13:39 05:38 10.64
1174 494 BELBOOM STEVE   SH 601 1:13:40 05:38 10.64
1175 1260 FERY FRÉDÉRIC   V1 208 1:13:40 05:38 10.64
1176 2001 DENOZ MAXIME   SH 602 1:13:40 05:38 10.64
1177 1038 WEICKMANS DAVID JACQUES   SH 603 1:13:40 05:38 10.64
1178 242 DEMAIN CYRIL   JH 31 1:13:40 05:38 10.64
1179 2000 GILLET FABRICE MARIE   V1 209 1:13:40 05:38 10.64
1180 260 DUBOIS CEDRIC PURATOS SH 604 1:13:41 05:39 10.63
1181 1538 ROYEN UGO   SH 605 1:13:41 05:39 10.63
1182 1559 FRANCK SANDRINE   SD 88 1:13:41 05:39 10.63
1183 155 HENTIENS AURÉLIE   SD 89 1:13:42 05:39 10.63
1184 1527 ELOYE JONATHAN   SH 606 1:13:42 05:39 10.63
1185 1813 MALMENDIER MATHIEU GOHY S.A. SH 607 1:13:44 05:39 10.63
1186 77 JANSEN FANNY CHR VERVIERS SD 90 1:13:45 05:39 10.62
1187 1808 CURNEL LIONEL   SH 608 1:13:46 05:39 10.62
1188 1627 MODAERT ROBIN   JH 32 1:13:46 05:39 10.62
1189 1666 JAVAUX CHRISTOPHE   SH 609 1:13:46 05:39 10.62
1190 34961 NIX JULIEN   SH 610 1:13:46 05:39 10.62
1191 1054 STRUCKMEYER MARC CHARLES   V3 38 1:13:48 05:39 10.62
1192 2326 HORTELAN HERVÉ   SH 611 1:13:49 05:39 10.62
1193 2105 PETIT-JEAN CHRISTINE MARIE   A1 40 1:13:49 05:39 10.62
1194 513 BROUWIER PIERRE   V3 39 1:13:49 05:39 10.62
1195 298 ANTOINE BINDELLE   SH 612 1:13:49 05:39 10.62
1196 2325 ROGGEMANS AMANDINE   SD 91 1:13:50 05:39 10.61
1197 1631 MICHAUX CHRISTIAN   V4 5 1:13:50 05:39 10.61
1198 1005 BERTHOLET CHRISTOPHE   SH 613 1:13:51 05:39 10.61
1199 943 VERJANS SARAH   SD 92 1:13:51 05:39 10.61
1200 1482 HARMELING PASCAL   V1 210 1:13:53 05:39 10.61
1201 395 DE ALMEIDA COELHO CARLOS ALBERTO   V2 131 1:13:56 05:40 10.60
1202 59 BAGUETTE MAUD CHR VERVIERS SD 93 1:13:56 05:40 10.60
1203 951 FOULON DANIEL   V3 40 1:13:56 05:40 10.60
1204 535 COLIN JEAN-LOUIS   V3 41 1:13:56 05:40 10.60
1205 257 GRADE LUDOVIC PURATOS SH 614 1:13:58 05:40 10.59
1206 1119 ROGISTER FRANCIS GERARD   V2 132 1:14:00 05:40 10.59
1207 664 JONLET LIONEL   SH 615 1:14:00 05:40 10.59
1208 1317 FILLOT SERGE   V1 211 1:14:00 05:40 10.59
1209 600 DUPRET PATRICK   V2 133 1:14:01 05:40 10.59
1210 1695 VOSS JEAN-LOUIS   V3 42 1:14:02 05:40 10.58
1211 502 BINOT ALEXANDRE   SH 616 1:14:03 05:40 10.58
1212 256 DELEPIERE MICHEL   SH 617 1:14:07 05:41 10.57
1213 292 BORGUET CATHERINE   SD 94 1:14:08 05:41 10.57
1214 391 SAIVE GEOFFREY ROGER   SH 618 1:14:09 05:41 10.57
1215 1261 LUCASSEN ERIC   V1 212 1:14:11 05:41 10.56
1216 878 RAQUET XAVIER   V2 134 1:14:12 05:41 10.56
1217 1703 ARNOULD CATHERINE   A1 41 1:14:14 05:41 10.56
1218 1706 MARTIN LAURENCE   SD 95 1:14:15 05:41 10.55
1219 207 KUMESO MATETA ARIS ESSITY BELGIUM SH 619 1:14:16 05:41 10.55
1220 569 DELVAUX OLIVIER   V1 213 1:14:17 05:41 10.55
1221 597 DUBOIS JEAN FRANÇOIS   V1 214 1:14:17 05:41 10.55
1222 2384 TERWAGNE PIERRE THEUX ADMINISTR V1 215 1:14:18 05:41 10.55
1223 1221 CREMER CHRISTELLE   SD 96 1:14:19 05:41 10.54
1224 1753 BERTEMES GUIDO   V2 135 1:14:20 05:42 10.54
1225 855 THEODORIDIS SEBASTIEN   SH 620 1:14:21 05:42 10.54
1226 389 GREIF ANTONY CHARLES   SH 621 1:14:21 05:42 10.54
1227 198 VAESSEN HÉLÈNE VINVENTIONS A2 17 1:14:23 05:42 10.53
1228 454 AMBROZIC MARIO MERLINO   SH 622 1:14:23 05:42 10.53
1229 1749 GILSON MARTIN   SH 623 1:14:26 05:42 10.53
1230 1154 WINTGENS SOPHIE   SD 97 1:14:28 05:42 10.52
1231 1286 DEFOURNY CAROLINE   SD 98 1:14:28 05:42 10.52
1232 150 DRIESEN GENEVIÈVE   A1 42 1:14:29 05:42 10.52
1233 953 LOCHT FREDERIC   SH 624 1:14:29 05:42 10.52
1234 1610 PIRON VERONIQUE   SD 99 1:14:30 05:42 10.52
1235 1612 ERPICUM GUILLAUME   V1 216 1:14:31 05:42 10.52
1236 473 ADANT THIERRY   V1 217 1:14:32 05:42 10.51
1237 1300 FRANCILLON JOHANNA   SD 100 1:14:33 05:43 10.51
1238 167 TCHOUMTCHOUA JOB CELABOR SH 625 1:14:33 05:43 10.51
1239 2010 DARGENT GEOFFREY   SH 626 1:14:34 05:43 10.51
1240 2015 JANSSEN MAURICE THEOPHILE   V2 136 1:14:34 05:43 10.51
1241 1832 HAVENITH CHARLOTTE   SD 101 1:14:34 05:43 10.51
1242 1512 COLSON HÉLÈNE   SD 102 1:14:35 05:43 10.51
1243 497 BERTIER MANU   V2 137 1:14:35 05:43 10.51
1244 136 DOHOGNE SYLVAIN FAGNES V1 218 1:14:36 05:43 10.50
1245 515 BROUWIER DAMIEN   SH 627 1:14:38 05:43 10.50
1246 453 RIBANT THIERRY ROBERT   V2 138 1:14:41 05:43 10.49
1247 1598 LIEGEOIS CHARLOTTE   SD 103 1:14:43 05:43 10.49
1248 2243 NYSSEN EMILIE   SD 104 1:14:43 05:43 10.49
1249 817 THISSEN JEAN-FRANÇOIS   V1 219 1:14:46 05:43 10.48
1250 436 MERTENS ANNICK   A2 18 1:14:46 05:43 10.48
1251 1310 MAHUTE VINCENT   V2 139 1:14:48 05:44 10.48
1252 578 DEMOULIN VANESSA   A1 43 1:14:49 05:44 10.47
1253 2092 DELBEUCK AURORE   SD 105 1:14:49 05:44 10.47
1254 83 STAINIER DELPHINE CHR VERVIERS SD 106 1:14:49 05:44 10.47
1255 2351 DAULNE BERNARD SWDE V1 220 1:14:51 05:44 10.47
1256 34995 LEJEUNE OLIVIA   SD 107 1:14:51 05:44 10.47
1257 1441 COSTANZO XAVIER   xxx   1:14:52 05:44 10.47
1258 598 DUGARD JEAN-MICHEL   V2 140 1:14:53 05:44 10.46
1259 1235 BECKERS ANNE FRANCOISE   A1 44 1:14:53 05:44 10.46
1260 1745 CASTELLI CATHERINE   SD 108 1:14:53 05:44 10.46
1261 1159 MARTINO MARCO DINO   V1 221 1:14:53 05:44 10.46
1262 34994 TOCK STÉPHANIE   SD 109 1:14:54 05:44 10.46
1263 839 VRANCKEN ANNICK   A1 45 1:14:54 05:44 10.46
1264 1168 PETIT NICOLAS   V1 222 1:14:56 05:44 10.46
1265 1838 STASSART GRÉGORY   SH 628 1:14:56 05:44 10.46
1266 2365 SCHWANEN ERIC ZONE DE SECOURS SH 629 1:14:56 05:44 10.46
1267 1472 PIRON MARIE MARTINE   A1 46 1:14:57 05:44 10.45
1268 2174 KERN THOMAS   SH 630 1:14:57 05:44 10.45
1269 1473 PIRON FRÉDÉRIC   V2 141 1:14:57 05:44 10.45
1270 34931 KLINKENBERG VINCENT   V2 142 1:14:58 05:44 10.45
1271 1981 DENOZ JULIEN   V1 223 1:15:00 05:45 10.45
1272 117 DELGADO MICHELINE DECATHLON VERVI A1 47 1:15:00 05:45 10.45
1273 595 DUBLET SERGE   V3 43 1:15:01 05:45 10.45
1274 1982 DOPPEE MAGALI   SD 110 1:15:02 05:45 10.44
1275 652 HOULMONT MATHILDE   SD 111 1:15:03 05:45 10.44
1276 797 SCHNEIDER PHILIPPE   V1 224 1:15:04 05:45 10.44
1277 1393 BAWIN AURELIEN   SH 631 1:15:04 05:45 10.44
1278 1495 CHRISTIANE BRUNO   V2 143 1:15:05 05:45 10.44
1279 289 BRANDT EMILE LUC   SH 632 1:15:05 05:45 10.44
1280 162 BARBAY DAVID   V1 225 1:15:06 05:45 10.43
1281 390 DRIESSENS PIERRE   V4 6 1:15:07 05:45 10.43
1282 1738 DUSSART GÉRÔME   SH 633 1:15:13 05:46 10.42
1283 103 BAART SYLVIANE CORMAN A2 19 1:15:13 05:46 10.42
1284 263 DOOME DOMINIQUE LÉONARD   V4 7 1:15:13 05:46 10.42
1285 1133 JAEGERS MARC   V1 226 1:15:14 05:46 10.42
1286 2189 PIRARD GATIEN   V1 227 1:15:15 05:46 10.41
1287 573 DEMEZ VÉRONIQUE   A1 48 1:15:16 05:46 10.41
1288 2007 MARECHAL SEBASTIEN   V1 228 1:15:16 05:46 10.41
1289 2284 JOSKIN ZENAIDE   SD 112 1:15:16 05:46 10.41
1290 2285 GILLET AURELIEN   SH 634 1:15:16 05:46 10.41
1291 527 CHARLIER YANA   SD 113 1:15:17 05:46 10.41
1292 266 LEJEUNE TOM   SH 635 1:15:20 05:46 10.40
1293 1786 GILON MARC   V2 144 1:15:21 05:46 10.40
1294 969 KEVERS ERIC   V2 145 1:15:23 05:46 10.39
1295 1585 CHARLIER GILBERT GOHY S.A. V1 229 1:15:25 05:46 10.39
1296 73 WILLEM TOM CHR VERVIERS SH 636 1:15:28 05:47 10.38
1297 2281 DA VIA FRANÇOIS-XAVIER   SH 637 1:15:29 05:47 10.38
1298 890 AL-SAADI ZAKARIYA TALIB   SH 638 1:15:30 05:47 10.38
1299 2383 HUBERTY SYLVIANE THEUX ADMINISTR A1 49 1:15:31 05:47 10.38
1300 141 BOUFFA NICOLAS FAGNES V1 230 1:15:32 05:47 10.37
1301 1316 TOMBEUX JEAN CLAUDE   V3 44 1:15:36 05:47 10.36
1302 356 HUGUETT LEGRAND   A3 3 1:15:36 05:47 10.36
1303 1258 ALVAREZ-FERNANDEZ NOLAN   JH 33 1:15:38 05:47 10.36
1304 2398 GILTAY XAVIER SWDE V1 231 1:15:41 05:48 10.35
1305 900 HENRY MARIE-FRANCE VÉRONIQUE   A1 50 1:15:41 05:48 10.35
1306 851 WITWROUW CHRISTOPHE   V1 232 1:15:44 05:48 10.35
1307 485 BASTIN ISABELLE   A1 51 1:15:44 05:48 10.35
1308 733 MATHIEU THIERRY   V2 146 1:15:44 05:48 10.35
1309 1244 IVENS ETIENNE   SH 639 1:15:47 05:48 10.34
1310 1551 VAN DEN KIEBOOM BART   V1 233 1:15:57 05:49 10.32
1311 1416 TRIFI WISSEM   SH 640 1:15:58 05:49 10.31
1312 1726 SERVILLE CHANTAL   A1 52 1:15:58 05:49 10.31
1313 2051 BRUZZESE NATHALIE   A1 53 1:15:59 05:49 10.31
1314 218 NR 218   xxx   1:15:59 05:49 10.31
1315 743 FOGUENNE MARIE-FRANCE   JF 4 1:16:00 05:49 10.31
1316 2240 RENSONNET JEAN-LUC   V2 147 1:16:02 05:49 10.31
1317 805 SIMONIS SUZANNE   A2 20 1:16:03 05:49 10.30
1318 1615 PETERS FABRICE   V1 234 1:16:07 05:50 10.29
1319 1048 WERNER MICHEL   V2 148 1:16:07 05:50 10.29
1320 362 HIGNY MARC RAYMOND   V2 149 1:16:08 05:50 10.29
1321 1816 GOHY JULIEN GOHY S.A. SH 641 1:16:09 05:50 10.29
1322 421 BOUCHÉ PIERRE PHILIPPE   V1 235 1:16:10 05:50 10.29
1323 1325 DELHAES ARNAUD   SH 642 1:16:11 05:50 10.29
1324 1145 D'HAESE NICOLAS CÉDRIC   SH 643 1:16:11 05:50 10.29
1325 1185 SELICKI XAVIER   SH 644 1:16:15 05:50 10.28
1326 1234 MAES FABIAN   SH 645 1:16:15 05:50 10.28
1327 413 MARCHOT FLORINE ANNE   SD 114 1:16:15 05:50 10.28
1328 1494 BALLMANN KATHLEEN   SD 115 1:16:15 05:50 10.28
1329 1402 LEGROS VÉRONIQUE   xxx   1:16:18 05:51 10.27
1330 686 LAUNOY VINCENT   V1 236 1:16:21 05:51 10.26
1331 2119 JACQUES CHARLES-HENRY   V1 237 1:16:24 05:51 10.26
1332 34983 BRICTEUX MICHEL   V2 150 1:16:26 05:51 10.25
1333 2224 MARÉCHAL ARTHUR CARINE   SH 646 1:16:27 05:51 10.25
1334 305 MORAY DIDIER   V2 151 1:16:28 05:51 10.25
1335 1144 DEFRERE PHILIPPE   V2 152 1:16:29 05:51 10.25
1336 1624 BALDEWYNS AUDREY   SD 116 1:16:29 05:51 10.25
1337 1899 SCHEEN OLIVIER   SH 647 1:16:30 05:51 10.24
1338 531 CHERPION ISABELLE   A1 54 1:16:32 05:52 10.24
1339 605 ERNOULD MARIE   SD 117 1:16:33 05:52 10.24
1340 397 THELEN PIERRE   SH 648 1:16:34 05:52 10.23
1341 835 VERCAMMEN MICHEL   V1 238 1:16:34 05:52 10.23
1342 910 DEBIOLLE GEORGES JOSEPH   V1 239 1:16:35 05:52 10.23
1343 333 BERTRAND THIERRY EMILE   V2 153 1:16:36 05:52 10.23
1344 342 NR 342   xxx   1:16:36 05:52 10.23
1345 1990 KARYDAS IOANNIS   SH 649 1:16:37 05:52 10.23
1346 761 PESSER MARC   SH 650 1:16:37 05:52 10.23
1347 1174 EVRARD TOM   SH 651 1:16:37 05:52 10.23
1348 1676 WEINAND TANJA   A2 21 1:16:37 05:52 10.23
1349 2089 CROQUET VERONIQUE   A2 22 1:16:38 05:52 10.23
1350 2249 BRAGARD OLIVIER   SH 652 1:16:43 05:52 10.21
1351 34960 NIX NICOLAS   SH 653 1:16:45 05:53 10.21
1352 1658 MARTENS SYLVIE   A2 23 1:16:47 05:53 10.21
1353 1020 PIERRON ROLAND   V4 8 1:16:48 05:53 10.20
1354 293 SCHOSSE NANCY   SD 118 1:16:49 05:53 10.20
1355 368 DENOISIEUX CHRISTIAN   V2 154 1:16:53 05:53 10.19
1356 96 GAVAGE SEBASTIEN ARAHF SH 654 1:16:55 05:53 10.19
1357 2282 GRETRY REGINE   A2 24 1:16:56 05:53 10.19
1358 863 TRICHA FAUDEL   JH 34 1:16:56 05:53 10.19
1359 1046 MASCHLANKA MICHAEL   V1 240 1:16:56 05:53 10.19
1360 854 ZUBIOLO EMMANUELLE   A1 55 1:16:58 05:54 10.18
1361 299 LADENBURGER MORGANE   SD 119 1:16:59 05:54 10.18
1362 865 COLSON OLIVIER   SH 655 1:16:59 05:54 10.18
1363 1053 HEUSCHEN ERIC   V1 241 1:16:59 05:54 10.18
1364 2331 CARON CHRISTOPHE   V1 242 1:16:59 05:54 10.18
1365 862 TRICHA REDHOUANE   JH 35 1:17:00 05:54 10.18
1366 2229 GRANDMAISON EMMANUEL   V1 243 1:17:00 05:54 10.18
1367 72 LEONARD EMILIE CHR VERVIERS SD 120 1:17:00 05:54 10.18
1368 864 FINCK ANDY   SH 656 1:17:00 05:54 10.18
1369 628 GENON MARIE-PIERRE   A2 25 1:17:00 05:54 10.18
1370 705 LEJEUNE KATHY   A1 56 1:17:00 05:54 10.18
1371 2075 HAUGLUTAINE JEROME   SH 657 1:17:00 05:54 10.18
1372 211 DODEMONT MAURINE ESSITY BELGIUM SD 121 1:17:01 05:54 10.17
1373 317 DELAVAL ARNAUD   SH 658 1:17:01 05:54 10.17
1374 1623 KLOMP IVO   SH 659 1:17:03 05:54 10.17
1375 1186 LISING ALAIN   V2 155 1:17:06 05:54 10.16
1376 2205 PÉTRY SYLVIANNE ANNE   SD 122 1:17:06 05:54 10.16
1377 843 WARLAND PHILIPPE   V1 244 1:17:06 05:54 10.16
1378 523 CAPIER JEAN-MARIE   V3 45 1:17:07 05:54 10.16
1379 779 REGNIER DIDIER   V2 156 1:17:07 05:54 10.16
1380 662 JEWASINSKI MICHEL   V1 245 1:17:08 05:54 10.16
1381 28 UWERA DINAH   SD 123 1:17:08 05:54 10.16
1382 989 CORREIA ANTHONY   SH 660 1:17:09 05:54 10.16
1383 93 BASTIN AURELIE ARAHF SD 124 1:17:10 05:55 10.15
1384 26 GOHY VALÉRIE   A1 57 1:17:10 05:55 10.15
1385 1191 EVRARD JEAN-MARC   V3 46 1:17:10 05:55 10.15
1386 157 DURIEUX ERWIN   SH 661 1:17:11 05:55 10.15
1387 1130 RENSONNET PASCAL RENÉ   V1 246 1:17:11 05:55 10.15
1388 1129 MOREAU AMAURY   V1 247 1:17:12 05:55 10.15
1389 1630 GREIMERS ALEXANDRE   SH 662 1:17:14 05:55 10.15
1390 35004 DEMOULIN BENJAMIN   SH 663 1:17:18 05:55 10.14
1391 1549 LEYDER ANNE   A2 26 1:17:21 05:55 10.13
1392 97 WERTZ STEPHANY ARAHF SD 125 1:17:23 05:56 10.13
1393 2376 DODET FABIAN CAP NRB V1 248 1:17:24 05:56 10.12
1394 1915 PIERRE HAUGLUSTAINE   JH 36 1:17:25 05:56 10.12
1395 1901 DUBOIS BENEDITTE   A2 27 1:17:25 05:56 10.12
1396 2159 GOBLET JEAN-MARC   V2 157 1:17:25 05:56 10.12
1397 1131 RANDAXHE MARTIN   JH 37 1:17:25 05:56 10.12
1398 1950 FERON JERAUME   SH 664 1:17:25 05:56 10.12
1399 2088 GASON RENAUD   V1 249 1:17:27 05:56 10.12
1400 1452 VAN DEN HEUVEL ANNE-CATHERINE   SD 126 1:17:27 05:56 10.12
1401 2116 THOMAS PHILIPPE   V1 250 1:17:27 05:56 10.12
1402 1021 VERHERGGEN LUDO   SH 665 1:17:28 05:56 10.12
1403 431 MATSIOS PAUL   SH 666 1:17:31 05:56 10.11
1404 400 TITS ANDRE   V3 47 1:17:33 05:56 10.10
1405 2067 BONON MICHAEL   SH 667 1:17:33 05:56 10.10
1406 831 VANMUNSTER PIERRE   JH 38 1:17:36 05:57 10.10
1407 34976 LIENARD MICHEL   V2 158 1:17:36 05:57 10.10
1408 968 FADEUR MARJORIE   SD 127 1:17:36 05:57 10.10
1409 751 NOIRFALISE CÉCILE   A1 58 1:17:37 05:57 10.10
1410 560 DE CORTE NELE   SD 128 1:17:37 05:57 10.10
1411 1161 DEMONCEAU LUDOVIC   SH 668 1:17:37 05:57 10.10
1412 1268 FRANCHIMONT ANNE   A2 28 1:17:38 05:57 10.09
1413 719 LOGNOUL RAPHAEL   V2 159 1:17:40 05:57 10.09
1414 279 JACOB MARIE   SD 129 1:17:41 05:57 10.09
1415 1255 HENNES GARY   SH 669 1:17:41 05:57 10.09
1416 2213 BOULANGER CLAIRE ANAIS   SD 130 1:17:43 05:57 10.08
1417 354 PAUL DION   SH 670 1:17:43 05:57 10.08
1418 1716 FERNOUX ANAÏS   SD 131 1:17:44 05:57 10.08
1419 1715 ORTMANS DANIEL   V1 251 1:17:44 05:57 10.08
1420 233 JOSKIN ARTHUR SULZER SH 671 1:17:46 05:57 10.08
1421 1493 DIERGE LAURINE   SD 132 1:17:46 05:57 10.08
1422 2378 LABASSE CHRISTINE THEUX ADMINISTR A2 29 1:17:46 05:57 10.08
1423 1348 CARIS JEAN MARC   V2 160 1:17:47 05:57 10.07
1424 1788 BONHOMME SEBASTIEN   SH 672 1:17:48 05:57 10.07
1425 309 DUBRU DOMINIQUE MONIQUE   A2 30 1:17:50 05:58 10.07
1426 318 ZAMORANO JUAN   SH 673 1:17:51 05:58 10.07
1427 1908 BOEMER RÉMY   SH 674 1:17:52 05:58 10.06
1428 498 BERTRANG JULIEN   V4 9 1:17:59 05:58 10.05
1429 643 HAUSEUX ALEXIA   SD 133 1:17:59 05:58 10.05
1430 86 GAUTIER MARIE CHR VERVIERS SD 134 1:18:00 05:58 10.05
1431 558 DAUPHIN CÉDRIC   V1 252 1:18:00 05:58 10.05
1432 234 GERARDY GERARD SULZER SH 675 1:18:01 05:58 10.04
1433 465 ZADI EMILE   V1 253 1:18:01 05:58 10.04
1434 1575 GIOVANELLI GILLES   SH 676 1:18:02 05:59 10.04
1435 1475 HUBERLAND OLIVIER   V1 254 1:18:02 05:59 10.04
1436 1996 LOUISE CAMPIONE   SD 135 1:18:03 05:59 10.04
1437 1888 DEROANNE MAXIME   JH 39 1:18:03 05:59 10.04
1438 933 JOSKIN BERNADETTE   A2 31 1:18:04 05:59 10.04
1439 1714 WASSON ANDRÉ   V2 161 1:18:09 05:59 10.03
1440 423 KERF ALAIN   V3 48 1:18:10 05:59 10.02
1441 1733 BRACH CHRISTOPHE   SH 677 1:18:11 05:59 10.02
1442 850 WIRTZFELD BRUNO   V2 162 1:18:12 05:59 10.02
1443 745 MOREAU VALERIE   A1 59 1:18:14 05:59 10.02
1444 2363 PLENNEVAUX RAPHAE ZONE DE SECOURS V1 255 1:18:15 06:00 10.01
1445 2364 LEGRAND MARCEL ZONE DE SECOURS V1 256 1:18:15 06:00 10.01
1446 2334 LERUTH PHILIPPE   V3 49 1:18:16 06:00 10.01
1447 81 DUPRIEZ PERRINE CHR VERVIERS SD 136 1:18:16 06:00 10.01
1448 92 DUPRIEZ CLARA   SD 137 1:18:16 06:00 10.01
1449 316 DE VYLDER LAURENT ISABELLE   SH 678 1:18:18 06:00 10.01
1450 2337 MARINO FLORENT   SH 679 1:18:19 06:00 10.01
1451 1727 TOMAD BORIS   SH 680 1:18:21 06:00 10.00
1452 880 RENSONNET LAURENT   SH 681 1:18:22 06:00 10.00
1453 1241 FLANDRE LÉON   V4 10 1:18:22 06:00 10.00
1454 519 CAJOT OLIVIER   V2 163 1:18:24 06:00 9.99
1455 1499 RINDONE RAPHAEL   SH 682 1:18:28 06:00 9.99
1456 265 GRANDJEAN MARIAN   SH 683 1:18:28 06:00 9.99
1457 1216 PAULO FABRICE   SH 684 1:18:29 06:01 9.98
1458 940 RADERMECKER MARIE-ANNE   A2 32 1:18:29 06:01 9.98
1459 593 DOUBELS MYRIAM   A1 60 1:18:30 06:01 9.98
1460 1301 FOHN JONATHAN JEAN   SH 685 1:18:33 06:01 9.98
1461 1681 KLIPPERT BENOIT   V1 257 1:18:33 06:01 9.98
1462 1900 HICK PAUL-PHILIPPE   SH 686 1:18:33 06:01 9.98
1463 418 DEJONG MATHIEU MARIE   SH 687 1:18:34 06:01 9.97
1464 2336 DAVID CHRISTIAN   V1 258 1:18:36 06:01 9.97
1465 909 BEAUVE ALICIA   SD 138 1:18:36 06:01 9.97
1466 99 BOLJESIC FREDERIC ARAHF V1 259 1:18:37 06:01 9.97
1467 29 BONTEMS DANY   V3 50 1:18:37 06:01 9.97
1468 1352 RENSON JEAN-LUC MARCEL   V2 164 1:18:38 06:01 9.97
1469 2286 FAYS FREDDY   V3 51 1:18:38 06:01 9.97
1470 2287 VOGELEER MICHEL   V2 165 1:18:38 06:01 9.97
1471 2039 DEFECHEREUX SEBASTIEN   V1 260 1:18:38 06:01 9.97
1472 170 KOHNEN STÉPHANE CELABOR V1 261 1:18:38 06:01 9.97
1473 1542 LANCE STEPHANIE   SD 139 1:18:39 06:01 9.96
1474 650 HEYNS VÉRONIQUE   A1 61 1:18:39 06:01 9.96
1475 1541 LANCE GILLES   V2 166 1:18:39 06:01 9.96
1476 98 MARGANNE MARTINE ARAHF A2 33 1:18:40 06:01 9.96
1477 462 FICHAUX CLAUDE ROGER   V2 167 1:18:43 06:02 9.95
1478 2315 MICELI FABRICE   SH 688 1:18:43 06:02 9.95
1479 704 LEJEUNE DAVID   V1 262 1:18:44 06:02 9.95
1480 212 RUTILO LETIZIA ESSITY BELGIUM SD 140 1:18:44 06:02 9.95
1481 1819 HENNEN JULIE   SD 141 1:18:44 06:02 9.95
1482 35015 NGUYEN TAN-DUC   V3 52 1:18:45 06:02 9.95
1483 2197 CONRAADS MARC   V2 168 1:18:46 06:02 9.95
1484 2361 LEFEBVRE GUILLAUME SWDE V1 263 1:18:46 06:02 9.95
1485 977 WITSEL JONATHAN   SH 689 1:18:47 06:02 9.95
1486 739 MESTREZ ERIC   V1 264 1:18:48 06:02 9.94
1487 171 VAN HECKE MICHEL   V1 265 1:18:48 06:02 9.94
1488 460 FONTAINE FRNCINE   SD 142 1:18:48 06:02 9.94
1489 1124 BURNOTTE GAETAN   V1 266 1:18:49 06:02 9.94
1490 557 DARTOIS FABRICE   V1 267 1:18:50 06:02 9.94
1491 2094 WANSART LOULOU   xxx   1:18:50 06:02 9.94
1492 262 DELNOY OLIVIER ARMAND   V2 169 1:18:52 06:02 9.94
1493 518 CACIATORE DANIEL   SH 690 1:18:52 06:02 9.94
1494 1126 DUMONT PIERRE   SH 691 1:18:53 06:02 9.93
1495 2093 HONNAY SOPHIE   A1 62 1:18:54 06:02 9.93
1496 703 LEJEUNE ENZA   JF 5 1:19:01 06:03 9.92
1497 34948 LENGLER MANON   SD 143 1:19:01 06:03 9.92
1498 2085 CIANCABILLA LAURA SERENELLA   SD 144 1:19:02 06:03 9.91
1499 438 MONNARD CYRIL   JH 40 1:19:03 06:03 9.91
1500 1935 LINCE AXELLE   SD 145 1:19:04 06:03 9.91
1501 1237 THISSEN FREDERICK   V2 170 1:19:06 06:03 9.91
1502 876 BARBARA CONRATD   SD 146 1:19:06 06:03 9.91
1503 2393 THISSEN PHILIPPE   V2 171 1:19:07 06:03 9.90
1504 101 SCHONBRODT PIERRE   V3 53 1:19:08 06:04 9.90
1505 918 VANDERSCHUEREN PHILIPPE   V1 268 1:19:10 06:04 9.90
1506 13 NR 13   xxx   1:19:11 06:04 9.90
1507 1002 MILIS ANNE-FRANÇOISE MARIE   A2 34 1:19:12 06:04 9.89
1508 432 GOBLET LIONEL   SH 692 1:19:12 06:04 9.89
1509 248 GUARISIO GIOVANNI EBAC SH 693 1:19:13 06:04